Time,TemperatureF,DewpointF,PressureIn,WindDirection,WindDirectionDegrees,WindSpeedMPH,WindSpeedGustMPH,Humidity,HourlyPrecipIn,Conditions,Clouds,dailyrainin,SoftwareType,DateUTC
2013-01-28 00:00:00,34.3,30.0,30.41,East,87,1.1,1.1,84,0.00,RA,,0.00,WeatherDisplay:10.37,2013-01-28 05:00:00,
2013-01-28 00:01:00,34.3,30.0,30.40,SE,136,2.3,2.3,84,0.00,RA,,0.00,WeatherDisplay:10.37,2013-01-28 05:01:00,
2013-01-28 00:02:00,34.3,30.0,30.40,SE,136,2.3,2.3,84,0.00,RA,,0.00,WeatherDisplay:10.37,2013-01-28 05:02:00,
2013-01-28 00:05:00,34.3,30.0,30.40,East,85,4.0,4.0,84,0.00,RA,,0.00,WeatherDisplay:10.37,2013-01-28 05:05:00,
2013-01-28 00:07:00,34.3,30.0,30.41,East,93,3.5,3.5,84,0.00,RA,,0.00,WeatherDisplay:10.37,2013-01-28 05:07:00,
2013-01-28 00:08:00,34.3,30.0,30.41,East,84,2.3,2.3,84,0.00,RA,,0.00,WeatherDisplay:10.37,2013-01-28 05:08:00,
2013-01-28 00:10:00,34.3,30.0,30.41,East,101,3.5,3.5,84,0.00,,,0.00,WeatherDisplay:10.37,2013-01-28 05:10:00,
2013-01-28 00:11:00,34.3,30.0,30.41,East,96,3.5,3.5,84,0.00,,,0.00,WeatherDisplay:10.37,2013-01-28 05:11:00,
2013-01-28 00:12:00,34.3,29.7,30.41,East,79,2.3,2.3,83,0.00,,,0.00,WeatherDisplay:10.37,2013-01-28 05:12:00,
2013-01-28 00:14:00,34.3,29.7,30.41,ENE,60,4.6,4.6,83,0.00,,,0.00,WeatherDisplay:10.37,2013-01-28 05:14:00,
2013-01-28 00:15:00,34.3,29.7,30.41,East,89,3.0,3.0,83,0.00,,,0.00,WeatherDisplay:10.37,2013-01-28 05:15:00,
2013-01-28 00:16:00,34.4,29.8,30.41,NE,49,3.5,3.5,83,0.00,,,0.00,WeatherDisplay:10.37,2013-01-28 05:16:00,
2013-01-28 00:17:00,34.4,29.8,30.41,East,91,1.1,1.3,83,0.00,,,0.00,WeatherDisplay:10.37,2013-01-28 05:17:00,
2013-01-28 00:20:00,34.4,29.5,30.41,ENE,64,3.5,3.5,82,0.00,,,0.00,WeatherDisplay:10.37,2013-01-28 05:20:00,
2013-01-28 00:21:00,34.5,29.9,30.41,ESE,110,3.0,3.0,83,0.00,,,0.00,WeatherDisplay:10.37,2013-01-28 05:21:00,
2013-01-28 00:22:00,34.5,29.6,30.41,ENE,70,3.5,3.5,82,0.00,,,0.00,WeatherDisplay:10.37,2013-01-28 05:22:00,
2013-01-28 00:25:00,34.5,29.6,30.41,East,80,2.3,2.3,82,0.00,,,0.00,WeatherDisplay:10.37,2013-01-28 05:25:00,
2013-01-28 00:26:00,34.5,29.6,30.41,East,99,3.5,3.5,82,0.00,,,0.00,WeatherDisplay:10.37,2013-01-28 05:26:00,
2013-01-28 00:27:00,34.5,29.6,30.40,ESE,113,3.5,3.5,82,0.00,,,0.00,WeatherDisplay:10.37,2013-01-28 05:27:00,
2013-01-28 00:30:00,34.5,29.6,30.40,East,91,4.6,4.6,82,0.00,,,0.00,WeatherDisplay:10.37,2013-01-28 05:30:00,
2013-01-28 00:31:00,34.5,29.6,30.40,East,88,3.5,3.5,82,0.00,,,0.00,WeatherDisplay:10.37,2013-01-28 05:31:00,
2013-01-28 00:32:00,34.5,29.6,30.41,East,81,3.5,3.5,82,0.00,,,0.00,WeatherDisplay:10.37,2013-01-28 05:32:00,
2013-01-28 00:36:00,34.5,29.6,30.40,East,91,3.5,3.5,82,0.00,,,0.00,WeatherDisplay:10.37,2013-01-28 05:36:00,
2013-01-28 00:37:00,34.5,29.6,30.41,NE,47,3.5,3.5,82,0.00,,,0.00,WeatherDisplay:10.37,2013-01-28 05:37:00,
2013-01-28 00:41:00,34.5,29.6,30.40,SSE,149,5.8,5.8,82,0.00,,,0.00,WeatherDisplay:10.37,2013-01-28 05:41:00,
2013-01-28 00:42:00,34.5,29.6,30.40,East,82,3.5,3.5,82,0.00,,,0.00,WeatherDisplay:10.37,2013-01-28 05:42:00,
2013-01-28 00:43:00,34.5,29.6,30.40,SSE,167,4.6,4.6,82,0.00,,,0.00,WeatherDisplay:10.37,2013-01-28 05:43:00,
2013-01-28 00:46:00,34.5,29.6,30.41,East,96,4.0,4.0,82,0.00,,,0.00,WeatherDisplay:10.37,2013-01-28 05:46:00,
2013-01-28 00:47:00,34.5,29.6,30.41,ESE,102,4.6,4.6,82,0.00,,,0.00,WeatherDisplay:10.37,2013-01-28 05:47:00,
2013-01-28 00:48:00,34.5,29.6,30.41,East,87,5.8,5.8,82,0.00,,,0.00,WeatherDisplay:10.37,2013-01-28 05:48:00,
2013-01-28 00:51:00,34.5,29.6,30.41,East,85,3.5,3.5,82,0.00,,,0.00,WeatherDisplay:10.37,2013-01-28 05:51:00,
2013-01-28 00:52:00,34.5,29.6,30.41,East,87,3.5,3.5,82,0.00,,,0.00,WeatherDisplay:10.37,2013-01-28 05:52:00,
2013-01-28 00:53:00,34.5,29.6,30.41,East,82,5.8,5.8,82,0.00,,,0.00,WeatherDisplay:10.37,2013-01-28 05:53:00,
2013-01-28 00:57:00,34.5,29.6,30.41,East,91,4.0,4.0,82,0.00,,,0.00,WeatherDisplay:10.37,2013-01-28 05:57:00,
2013-01-28 00:58:00,34.5,29.6,30.41,ESE,104,4.0,4.0,82,0.00,,,0.00,WeatherDisplay:10.37,2013-01-28 05:58:00,
2013-01-28 00:59:00,34.5,29.6,30.41,East,85,3.5,3.5,82,0.00,,,0.00,WeatherDisplay:10.37,2013-01-28 05:59:00,
2013-01-28 01:02:00,34.6,29.7,30.41,NE,56,3.5,3.5,82,0.00,CLR,,0.00,WeatherDisplay:10.37,2013-01-28 06:02:00,
2013-01-28 01:03:00,34.6,29.7,30.41,East,92,3.5,3.5,82,0.00,CLR,,0.00,WeatherDisplay:10.37,2013-01-28 06:03:00,
2013-01-28 01:04:00,34.6,29.4,30.41,ESE,103,3.5,3.5,81,0.00,CLR,,0.00,WeatherDisplay:10.37,2013-01-28 06:04:00,
2013-01-28 01:07:00,34.7,29.5,30.40,East,95,3.5,3.5,81,0.00,CLR,,0.00,WeatherDisplay:10.37,2013-01-28 06:07:00,
2013-01-28 01:08:00,34.7,29.5,30.40,East,85,5.8,5.8,81,0.00,CLR,,0.00,WeatherDisplay:10.37,2013-01-28 06:08:00,
2013-01-28 01:10:00,34.7,29.8,30.40,NE,50,4.0,4.0,82,0.00,CLR,,0.00,WeatherDisplay:10.37,2013-01-28 06:10:00,
2013-01-28 01:12:00,34.7,29.5,30.41,ENE,75,4.0,4.0,81,0.00,CLR,,0.00,WeatherDisplay:10.37,2013-01-28 06:12:00,
2013-01-28 01:13:00,34.7,29.5,30.41,ESE,102,3.5,3.5,81,0.00,CLR,,0.00,WeatherDisplay:10.37,2013-01-28 06:13:00,
2013-01-28 01:16:00,34.7,29.5,30.41,ESE,103,3.5,3.5,81,0.00,CLR,,0.00,WeatherDisplay:10.37,2013-01-28 06:16:00,
2013-01-28 01:17:00,34.8,29.6,30.41,East,92,3.5,3.5,81,0.00,CLR,,0.00,WeatherDisplay:10.37,2013-01-28 06:17:00,
2013-01-28 01:18:00,34.8,29.6,30.41,ENE,78,2.3,2.3,81,0.00,CLR,,0.00,WeatherDisplay:10.37,2013-01-28 06:18:00,
2013-01-28 01:22:00,34.8,29.9,30.41,East,82,2.3,2.3,82,0.00,CLR,,0.00,WeatherDisplay:10.37,2013-01-28 06:22:00,
2013-01-28 01:23:00,34.8,29.9,30.41,East,95,3.5,3.5,82,0.00,CLR,,0.00,WeatherDisplay:10.37,2013-01-28 06:23:00,
2013-01-28 01:27:00,34.8,29.6,30.41,East,89,3.5,3.5,81,0.00,CLR,,0.00,WeatherDisplay:10.37,2013-01-28 06:27:00,
2013-01-28 01:28:00,34.8,29.6,30.41,ENE,78,5.0,5.0,81,0.00,CLR,,0.00,WeatherDisplay:10.37,2013-01-28 06:28:00,
2013-01-28 01:32:00,34.8,29.9,30.40,East,89,3.5,3.5,82,0.00,CLR,,0.00,WeatherDisplay:10.37,2013-01-28 06:32:00,
2013-01-28 01:33:00,34.7,29.8,30.41,ENE,75,3.5,3.5,82,0.00,CLR,,0.00,WeatherDisplay:10.37,2013-01-28 06:33:00,
2013-01-28 01:34:00,34.7,29.8,30.41,East,98,3.5,3.5,82,0.00,CLR,,0.00,WeatherDisplay:10.37,2013-01-28 06:34:00,
2013-01-28 01:37:00,34.7,29.8,30.41,East,85,3.5,3.5,82,0.00,CLR,,0.00,WeatherDisplay:10.37,2013-01-28 06:37:00,
2013-01-28 01:38:00,34.7,29.8,30.41,NE,43,2.3,2.3,82,0.00,CLR,,0.00,WeatherDisplay:10.37,2013-01-28 06:38:00,
2013-01-28 01:39:00,34.7,29.5,30.41,East,82,3.5,3.5,81,0.00,CLR,,0.00,WeatherDisplay:10.37,2013-01-28 06:39:00,
2013-01-28 01:42:00,34.8,29.6,30.41,East,88,3.5,3.5,81,0.00,CLR,,0.00,WeatherDisplay:10.37,2013-01-28 06:42:00,
2013-01-28 01:43:00,34.8,29.6,30.41,ESE,102,3.5,3.5,81,0.00,CLR,,0.00,WeatherDisplay:10.37,2013-01-28 06:43:00,
2013-01-28 01:45:00,34.8,29.6,30.40,East,95,4.6,4.6,81,0.00,CLR,,0.00,WeatherDisplay:10.37,2013-01-28 06:45:00,
2013-01-28 01:48:00,34.8,29.6,30.40,East,84,3.5,3.5,81,0.00,CLR,,0.00,WeatherDisplay:10.37,2013-01-28 06:48:00,
2013-01-28 01:49:00,34.8,29.6,30.40,East,91,3.5,3.5,81,0.00,CLR,,0.00,WeatherDisplay:10.37,2013-01-28 06:49:00,
2013-01-28 01:50:00,34.8,29.9,30.40,East,86,5.8,5.8,82,0.00,CLR,,0.00,WeatherDisplay:10.37,2013-01-28 06:50:00,
2013-01-28 01:53:00,34.8,29.9,30.40,SSE,147,3.5,3.5,82,0.00,CLR,,0.00,WeatherDisplay:10.37,2013-01-28 06:53:00,
2013-01-28 01:54:00,34.8,29.9,30.40,East,89,4.0,4.0,82,0.00,CLR,,0.00,WeatherDisplay:10.37,2013-01-28 06:54:00,
2013-01-28 01:55:00,34.8,29.6,30.41,East,100,3.5,3.5,81,0.00,CLR,,0.00,WeatherDisplay:10.37,2013-01-28 06:55:00,
2013-01-28 01:59:00,34.8,29.9,30.41,East,88,3.5,3.5,82,0.00,CLR,,0.00,WeatherDisplay:10.37,2013-01-28 06:59:00,
2013-01-28 02:00:00,34.8,29.9,30.41,East,91,3.5,3.5,82,0.00,CLR,,0.00,WeatherDisplay:10.37,2013-01-28 07:00:00,
2013-01-28 02:04:00,34.8,29.9,30.41,East,88,3.5,3.5,82,0.00,CLR,,0.00,WeatherDisplay:10.37,2013-01-28 07:04:00,
2013-01-28 02:06:00,34.8,29.9,30.41,East,98,3.5,3.5,82,0.00,CLR,,0.00,WeatherDisplay:10.37,2013-01-28 07:06:00,
2013-01-28 02:09:00,34.8,29.9,30.41,ENE,73,2.3,2.3,82,0.00,CLR,,0.00,WeatherDisplay:10.37,2013-01-28 07:09:00,
2013-01-28 02:10:00,34.8,29.9,30.41,ESE,118,3.5,3.5,82,0.00,CLR,,0.00,WeatherDisplay:10.37,2013-01-28 07:10:00,
2013-01-28 02:11:00,34.8,29.9,30.41,ESE,105,4.6,4.6,82,0.00,CLR,,0.00,WeatherDisplay:10.37,2013-01-28 07:11:00,
2013-01-28 02:14:00,34.8,29.9,30.40,ESE,108,4.6,4.6,82,0.00,CLR,,0.00,WeatherDisplay:10.37,2013-01-28 07:14:00,
2013-01-28 02:15:00,34.9,30.0,30.40,ENE,70,3.5,3.5,82,0.00,CLR,,0.00,WeatherDisplay:10.37,2013-01-28 07:15:00,
2013-01-28 02:16:00,34.9,30.0,30.40,ENE,77,2.3,2.3,82,0.00,CLR,,0.00,WeatherDisplay:10.37,2013-01-28 07:16:00,
2013-01-28 02:19:00,34.9,30.0,30.41,NE,51,1.1,0.0,82,0.00,CLR,,0.00,WeatherDisplay:10.37,2013-01-28 07:19:00,
2013-01-28 02:20:00,34.9,30.0,30.41,NE,43,1.1,1.1,82,0.00,CLR,,0.00,WeatherDisplay:10.37,2013-01-28 07:20:00,
2013-01-28 02:21:00,34.9,30.0,30.41,East,91,4.0,4.0,82,0.00,CLR,,0.00,WeatherDisplay:10.37,2013-01-28 07:21:00,
2013-01-28 02:24:00,34.9,30.0,30.41,East,88,1.1,1.1,82,0.00,CLR,,0.00,WeatherDisplay:10.37,2013-01-28 07:24:00,
2013-01-28 02:25:00,35.0,30.1,30.41,East,88,1.1,1.1,82,0.00,CLR,,0.00,WeatherDisplay:10.37,2013-01-28 07:25:00,
2013-01-28 02:27:00,35.0,30.1,30.40,East,98,2.3,2.3,82,0.00,CLR,,0.00,WeatherDisplay:10.37,2013-01-28 07:27:00,
2013-01-28 02:29:00,35.0,30.1,30.41,ESE,118,1.1,1.1,82,0.00,CLR,,0.00,WeatherDisplay:10.37,2013-01-28 07:29:00,
2013-01-28 02:30:00,35.0,30.1,30.40,East,98,1.1,1.2,82,0.00,CLR,,0.00,WeatherDisplay:10.37,2013-01-28 07:30:00,
2013-01-28 02:32:00,35.0,30.4,30.40,ESE,106,2.3,2.3,83,0.00,CLR,,0.00,WeatherDisplay:10.37,2013-01-28 07:32:00,
2013-01-28 02:34:00,35.0,30.4,30.40,East,91,2.3,2.3,83,0.00,CLR,,0.00,WeatherDisplay:10.37,2013-01-28 07:34:00,
2013-01-28 02:35:00,35.0,30.4,30.40,SSE,149,2.3,2.3,83,0.00,CLR,,0.00,WeatherDisplay:10.37,2013-01-28 07:35:00,
2013-01-28 02:36:00,35.0,30.4,30.40,SE,141,2.3,2.3,83,0.00,CLR,,0.00,WeatherDisplay:10.37,2013-01-28 07:36:00,
2013-01-28 02:37:00,35.0,30.4,30.40,SE,141,1.1,1.1,83,0.00,CLR,,0.00,WeatherDisplay:10.37,2013-01-28 07:37:00,
2013-01-28 02:40:00,35.0,30.4,30.40,East,84,2.3,2.3,83,0.00,CLR,,0.00,WeatherDisplay:10.37,2013-01-28 07:40:00,
2013-01-28 02:41:00,35.0,30.4,30.41,East,91,2.3,2.3,83,0.00,CLR,,0.00,WeatherDisplay:10.37,2013-01-28 07:41:00,
2013-01-28 02:43:00,35.0,30.4,30.41,East,91,1.1,1.1,83,0.00,CLR,,0.00,WeatherDisplay:10.37,2013-01-28 07:43:00,
2013-01-28 02:46:00,35.0,30.4,30.41,NE,56,3.0,3.0,83,0.00,CLR,,0.00,WeatherDisplay:10.37,2013-01-28 07:46:00,
2013-01-28 02:48:00,35.1,30.2,30.41,NE,50,1.1,0.0,82,0.00,CLR,,0.00,WeatherDisplay:10.37,2013-01-28 07:48:00,
2013-01-28 02:51:00,35.1,30.5,30.41,NE,50,1.1,0.0,83,0.00,CLR,,0.00,WeatherDisplay:10.37,2013-01-28 07:51:00,
2013-01-28 02:52:00,35.2,30.6,30.41,NE,50,1.1,0.0,83,0.00,CLR,,0.00,WeatherDisplay:10.37,2013-01-28 07:52:00,
2013-01-28 02:53:00,35.2,30.6,30.41,NE,50,0.0,0.0,83,0.00,CLR,,0.00,WeatherDisplay:10.37,2013-01-28 07:53:00,
2013-01-28 02:56:00,35.2,30.6,30.41,NE,51,1.1,1.1,83,0.00,CLR,,0.00,WeatherDisplay:10.37,2013-01-28 07:56:00,
2013-01-28 02:57:00,35.2,30.6,30.40,ENE,74,2.3,2.3,83,0.00,CLR,,0.00,WeatherDisplay:10.37,2013-01-28 07:57:00,
2013-01-28 02:58:00,35.1,30.5,30.41,ENE,74,2.3,2.3,83,0.00,CLR,,0.00,WeatherDisplay:10.37,2013-01-28 07:58:00,
2013-01-28 03:02:00,35.1,30.8,30.41,SE,136,3.5,3.5,84,0.00,CLR,,0.00,WeatherDisplay:10.37,2013-01-28 08:02:00,
2013-01-28 03:03:00,35.1,30.8,30.41,East,93,3.5,3.5,84,0.00,CLR,,0.00,WeatherDisplay:10.37,2013-01-28 08:03:00,
2013-01-28 03:04:00,35.1,30.8,30.41,East,94,1.1,1.1,84,0.00,CLR,,0.00,WeatherDisplay:10.37,2013-01-28 08:04:00,
2013-01-28 03:07:00,35.1,30.8,30.40,SE,129,1.1,1.1,84,0.00,CLR,,0.00,WeatherDisplay:10.37,2013-01-28 08:07:00,
2013-01-28 03:08:00,35.1,30.8,30.40,SE,127,1.1,1.1,84,0.00,CLR,,0.00,WeatherDisplay:10.37,2013-01-28 08:08:00,
2013-01-28 03:09:00,35.1,30.8,30.40,ESE,119,2.3,2.3,84,0.00,CLR,,0.00,WeatherDisplay:10.37,2013-01-28 08:09:00,
2013-01-28 03:12:00,35.1,30.8,30.40,ENE,73,2.3,2.3,84,0.00,CLR,,0.00,WeatherDisplay:10.37,2013-01-28 08:12:00,
2013-01-28 03:13:00,35.1,30.8,30.40,East,84,2.3,2.3,84,0.00,CLR,,0.00,WeatherDisplay:10.37,2013-01-28 08:13:00,
2013-01-28 03:14:00,35.0,30.7,30.40,SE,127,2.3,2.3,84,0.00,CLR,,0.00,WeatherDisplay:10.37,2013-01-28 08:14:00,
2013-01-28 03:18:00,35.0,30.7,30.40,SE,137,2.3,2.3,84,0.00,CLR,,0.00,WeatherDisplay:10.37,2013-01-28 08:18:00,
2013-01-28 03:19:00,35.0,30.7,30.40,ESE,115,2.3,2.3,84,0.00,CLR,,0.00,WeatherDisplay:10.37,2013-01-28 08:19:00,
2013-01-28 03:23:00,35.0,30.7,30.40,SE,144,3.5,3.5,84,0.00,CLR,,0.00,WeatherDisplay:10.37,2013-01-28 08:23:00,
2013-01-28 03:24:00,35.0,30.7,30.40,SE,144,2.3,2.3,84,0.00,CLR,,0.00,WeatherDisplay:10.37,2013-01-28 08:24:00,
2013-01-28 03:28:00,35.0,30.7,30.39,ESE,118,2.3,2.3,84,0.00,CLR,,0.00,WeatherDisplay:10.37,2013-01-28 08:28:00,
2013-01-28 03:29:00,35.0,30.7,30.39,SE,141,3.5,3.5,84,0.00,CLR,,0.00,WeatherDisplay:10.37,2013-01-28 08:29:00,
2013-01-28 03:30:00,35.0,30.7,30.39,ESE,122,2.3,2.3,84,0.00,CLR,,0.00,WeatherDisplay:10.37,2013-01-28 08:30:00,
2013-01-28 03:33:00,35.0,30.7,30.39,East,89,3.5,3.5,84,0.00,CLR,,0.00,WeatherDisplay:10.37,2013-01-28 08:33:00,
2013-01-28 03:34:00,35.0,30.7,30.39,East,89,2.3,2.3,84,0.00,CLR,,0.00,WeatherDisplay:10.37,2013-01-28 08:34:00,
2013-01-28 03:35:00,35.0,30.7,30.39,East,89,2.3,2.3,84,0.00,CLR,,0.00,WeatherDisplay:10.37,2013-01-28 08:35:00,
2013-01-28 03:38:00,35.0,30.7,30.39,East,89,1.1,1.1,84,0.00,CLR,,0.00,WeatherDisplay:10.37,2013-01-28 08:38:00,
2013-01-28 03:39:00,35.0,30.7,30.39,ENE,73,1.1,1.1,84,0.00,CLR,,0.00,WeatherDisplay:10.37,2013-01-28 08:39:00,
2013-01-28 03:40:00,35.0,30.7,30.39,ENE,73,1.1,1.1,84,0.00,CLR,,0.00,WeatherDisplay:10.37,2013-01-28 08:40:00,
2013-01-28 03:44:00,35.0,30.7,30.39,ENE,68,2.3,2.3,84,0.00,CLR,,0.00,WeatherDisplay:10.37,2013-01-28 08:44:00,
2013-01-28 03:45:00,35.0,30.7,30.39,NE,43,2.0,2.0,84,0.00,CLR,,0.00,WeatherDisplay:10.37,2013-01-28 08:45:00,
2013-01-28 03:49:00,35.1,30.8,30.39,NE,36,1.1,1.1,84,0.00,CLR,,0.00,WeatherDisplay:10.37,2013-01-28 08:49:00,
2013-01-28 03:50:00,35.1,30.8,30.39,NE,36,1.1,1.1,84,0.00,CLR,,0.00,WeatherDisplay:10.37,2013-01-28 08:50:00,
2013-01-28 03:55:00,35.1,31.0,30.39,NE,37,1.1,0.0,85,0.00,CLR,,0.00,WeatherDisplay:10.37,2013-01-28 08:55:00,
2013-01-28 04:00:00,35.1,31.0,30.39,NE,37,0.0,1.0,85,0.00,CLR,,0.00,WeatherDisplay:10.37,2013-01-28 09:00:00,
2013-01-28 04:05:00,35.2,30.9,30.39,NE,37,0.0,1.0,84,0.00,CLR,,0.00,WeatherDisplay:10.37,2013-01-28 09:05:00,
2013-01-28 04:06:00,35.2,30.9,30.39,NE,39,3.5,3.5,84,0.00,CLR,,0.00,WeatherDisplay:10.37,2013-01-28 09:06:00,
2013-01-28 04:10:00,35.2,30.9,30.39,NE,40,1.1,1.1,84,0.00,CLR,,0.00,WeatherDisplay:10.37,2013-01-28 09:10:00,
2013-01-28 04:11:00,35.3,30.9,30.39,NE,40,1.1,1.1,84,0.00,CLR,,0.00,WeatherDisplay:10.37,2013-01-28 09:11:00,
2013-01-28 04:15:00,35.3,30.7,30.40,NE,40,1.1,0.0,83,0.00,CLR,,0.00,WeatherDisplay:10.37,2013-01-28 09:15:00,
2013-01-28 04:16:00,35.3,30.7,30.40,NE,40,0.0,0.0,83,0.00,CLR,,0.00,WeatherDisplay:10.37,2013-01-28 09:16:00,
2013-01-28 04:20:00,35.3,30.7,30.40,NE,40,1.1,0.0,83,0.00,CLR,,0.00,WeatherDisplay:10.37,2013-01-28 09:20:00,
2013-01-28 04:21:00,35.3,30.7,30.40,NE,40,0.0,0.0,83,0.00,CLR,,0.00,WeatherDisplay:10.37,2013-01-28 09:21:00,
2013-01-28 04:22:00,35.3,30.7,30.40,NE,40,0.0,0.0,83,0.00,CLR,,0.00,WeatherDisplay:10.37,2013-01-28 09:22:00,
2013-01-28 04:25:00,35.3,30.7,30.40,NE,40,1.1,1.1,83,0.00,CLR,,0.00,WeatherDisplay:10.37,2013-01-28 09:25:00,
2013-01-28 04:26:00,35.4,30.8,30.40,NE,40,1.1,1.1,83,0.00,CLR,,0.00,WeatherDisplay:10.37,2013-01-28 09:26:00,
2013-01-28 04:27:00,35.4,31.0,30.40,NE,40,0.0,0.0,84,0.00,CLR,,0.00,WeatherDisplay:10.37,2013-01-28 09:27:00,
2013-01-28 04:31:00,35.4,31.0,30.40,NE,40,1.1,1.1,84,0.00,CLR,,0.00,WeatherDisplay:10.37,2013-01-28 09:31:00,
2013-01-28 04:32:00,35.4,31.0,30.40,NE,40,0.0,0.0,84,0.00,CLR,,0.00,WeatherDisplay:10.37,2013-01-28 09:32:00,
2013-01-28 04:36:00,35.4,31.0,30.40,NE,40,1.1,1.1,84,0.00,CLR,,0.00,WeatherDisplay:10.37,2013-01-28 09:36:00,
2013-01-28 04:37:00,35.4,31.0,30.40,NE,40,1.1,1.1,84,0.00,CLR,,0.00,WeatherDisplay:10.37,2013-01-28 09:37:00,
2013-01-28 04:38:00,35.4,31.0,30.40,NE,40,1.0,0.0,84,0.00,CLR,,0.00,WeatherDisplay:10.37,2013-01-28 09:38:00,
2013-01-28 04:41:00,35.4,31.0,30.40,NE,40,1.1,0.0,84,0.00,CLR,,0.00,WeatherDisplay:10.37,2013-01-28 09:41:00,
2013-01-28 04:42:00,35.5,31.1,30.40,NE,40,0.0,0.3,84,0.00,CLR,,0.00,WeatherDisplay:10.37,2013-01-28 09:42:00,
2013-01-28 04:43:00,35.5,31.1,30.40,NE,51,1.1,1.1,84,0.00,CLR,,0.00,WeatherDisplay:10.37,2013-01-28 09:43:00,
2013-01-28 04:46:00,35.5,31.4,30.40,SSE,158,2.3,2.3,85,0.00,CLR,,0.00,WeatherDisplay:10.37,2013-01-28 09:46:00,
2013-01-28 04:48:00,35.4,31.3,30.40,SSE,158,1.1,1.1,85,0.00,CLR,,0.00,WeatherDisplay:10.37,2013-01-28 09:48:00,
2013-01-28 04:51:00,35.4,31.3,30.39,SSE,158,0.0,0.0,85,0.00,CLR,,0.00,WeatherDisplay:10.37,2013-01-28 09:51:00,
2013-01-28 04:52:00,35.3,31.2,30.40,SSE,158,0.0,0.0,85,0.00,CLR,,0.00,WeatherDisplay:10.37,2013-01-28 09:52:00,
2013-01-28 04:53:00,35.4,31.3,30.40,SSE,158,0.0,0.0,85,0.00,CLR,,0.00,WeatherDisplay:10.37,2013-01-28 09:53:00,
2013-01-28 04:57:00,35.3,31.2,30.40,SSE,158,0.0,0.0,85,0.00,CLR,,0.00,WeatherDisplay:10.37,2013-01-28 09:57:00,
2013-01-28 04:58:00,35.3,31.2,30.40,SSE,158,0.0,0.0,85,0.00,CLR,,0.00,WeatherDisplay:10.37,2013-01-28 09:58:00,
2013-01-28 05:02:00,35.3,31.2,30.40,SSE,158,0.0,0.0,85,0.00,CLR,,0.00,WeatherDisplay:10.37,2013-01-28 10:02:00,
2013-01-28 05:04:00,35.3,31.2,30.40,SSE,158,0.0,0.0,85,0.00,CLR,,0.00,WeatherDisplay:10.37,2013-01-28 10:04:00,
2013-01-28 05:07:00,35.3,31.2,30.40,SSE,158,0.0,0.0,85,0.00,CLR,,0.00,WeatherDisplay:10.37,2013-01-28 10:07:00,
2013-01-28 05:09:00,35.3,31.2,30.40,SSE,158,0.0,0.0,85,0.00,CLR,,0.00,WeatherDisplay:10.37,2013-01-28 10:09:00,
2013-01-28 05:12:00,35.3,31.2,30.40,SSE,158,1.1,0.0,85,0.00,CLR,,0.00,WeatherDisplay:10.37,2013-01-28 10:12:00,
2013-01-28 05:14:00,35.3,31.5,30.39,SSE,158,0.0,0.0,86,0.00,CLR,,0.00,WeatherDisplay:10.37,2013-01-28 10:14:00,
2013-01-28 05:17:00,35.3,31.5,30.40,SSE,158,0.0,0.0,86,0.00,CLR,,0.00,WeatherDisplay:10.37,2013-01-28 10:17:00,
2013-01-28 05:19:00,35.3,31.5,30.39,SSE,158,0.0,0.0,86,0.00,CLR,,0.00,WeatherDisplay:10.37,2013-01-28 10:19:00,
2013-01-28 05:20:00,35.2,31.4,30.40,SSE,158,0.0,0.0,86,0.00,CLR,,0.00,WeatherDisplay:10.37,2013-01-28 10:20:00,
2013-01-28 05:22:00,35.2,31.4,30.40,SSE,158,0.0,0.0,86,0.00,CLR,,0.00,WeatherDisplay:10.37,2013-01-28 10:22:00,
2013-01-28 05:24:00,35.2,31.4,30.40,SSE,158,0.0,0.0,86,0.00,CLR,,0.00,WeatherDisplay:10.37,2013-01-28 10:24:00,
2013-01-28 05:25:00,35.2,31.4,30.40,SSE,158,0.0,0.1,86,0.00,CLR,,0.00,WeatherDisplay:10.37,2013-01-28 10:25:00,
2013-01-28 05:28:00,35.2,31.4,30.40,SSE,158,1.1,1.1,86,0.00,CLR,,0.00,WeatherDisplay:10.37,2013-01-28 10:28:00,
2013-01-28 05:29:00,35.2,31.4,30.40,SSE,158,0.0,0.0,86,0.00,CLR,,0.00,WeatherDisplay:10.37,2013-01-28 10:29:00,
2013-01-28 05:31:00,35.2,31.4,30.40,SSE,158,0.0,0.0,86,0.00,CLR,,0.00,WeatherDisplay:10.37,2013-01-28 10:31:00,
2013-01-28 05:33:00,35.2,31.4,30.40,SSE,158,0.0,0.0,86,0.00,CLR,,0.00,WeatherDisplay:10.37,2013-01-28 10:33:00,
2013-01-28 05:34:00,35.2,31.4,30.40,SSE,158,0.0,0.0,86,0.00,CLR,,0.00,WeatherDisplay:10.37,2013-01-28 10:34:00,
2013-01-28 05:36:00,35.2,31.4,30.40,SSE,158,0.0,0.0,86,0.00,CLR,,0.00,WeatherDisplay:10.37,2013-01-28 10:36:00,
2013-01-28 05:38:00,35.2,31.4,30.40,SSE,158,0.0,0.0,86,0.00,CLR,,0.00,WeatherDisplay:10.37,2013-01-28 10:38:00,
2013-01-28 05:39:00,35.2,31.4,30.41,SSE,158,0.0,0.0,86,0.00,CLR,,0.00,WeatherDisplay:10.37,2013-01-28 10:39:00,
2013-01-28 05:41:00,35.1,31.3,30.41,SSE,158,0.0,0.0,86,0.00,CLR,,0.00,WeatherDisplay:10.37,2013-01-28 10:41:00,
2013-01-28 05:43:00,35.1,31.6,30.41,SSE,158,0.0,0.0,87,0.00,CLR,,0.00,WeatherDisplay:10.37,2013-01-28 10:43:00,
2013-01-28 05:44:00,35.1,31.6,30.40,SSE,158,0.0,0.1,87,0.00,CLR,,0.00,WeatherDisplay:10.37,2013-01-28 10:44:00,
2013-01-28 05:46:00,35.0,31.5,30.40,SSE,158,0.0,0.0,87,0.00,CLR,,0.00,WeatherDisplay:10.37,2013-01-28 10:46:00,
2013-01-28 05:48:00,34.9,31.4,30.41,SSE,158,0.0,0.0,87,0.00,CLR,,0.00,WeatherDisplay:10.37,2013-01-28 10:48:00,
2013-01-28 05:50:00,34.9,31.4,30.41,SSE,158,0.0,0.0,87,0.00,CLR,,0.00,WeatherDisplay:10.37,2013-01-28 10:50:00,
2013-01-28 05:51:00,34.9,31.4,30.41,SSE,158,0.0,0.0,87,0.00,CLR,,0.00,WeatherDisplay:10.37,2013-01-28 10:51:00,
2013-01-28 05:53:00,34.8,31.3,30.41,SSE,158,0.0,0.0,87,0.00,CLR,,0.00,WeatherDisplay:10.37,2013-01-28 10:53:00,
2013-01-28 05:54:00,34.8,31.3,30.41,SSE,158,0.0,0.0,87,0.00,CLR,,0.00,WeatherDisplay:10.37,2013-01-28 10:54:00,
2013-01-28 05:55:00,34.7,31.2,30.41,SSE,158,0.0,0.0,87,0.00,CLR,,0.00,WeatherDisplay:10.37,2013-01-28 10:55:00,
2013-01-28 05:56:00,34.7,31.5,30.41,SSE,158,0.0,0.0,88,0.00,CLR,,0.00,WeatherDisplay:10.37,2013-01-28 10:56:00,
2013-01-28 05:58:00,34.6,31.4,30.41,SSE,158,1.1,0.0,88,0.00,CLR,,0.00,WeatherDisplay:10.37,2013-01-28 10:58:00,
2013-01-28 06:00:00,34.6,31.4,30.41,SSE,158,0.0,1.0,88,0.00,CLR,,0.00,WeatherDisplay:10.37,2013-01-28 11:00:00,
2013-01-28 06:01:00,34.6,31.4,30.41,SSE,158,0.0,0.0,88,0.00,CLR,,0.00,WeatherDisplay:10.37,2013-01-28 11:01:00,
2013-01-28 06:03:00,34.5,31.3,30.41,SSE,158,0.0,0.0,88,0.00,CLR,,0.00,WeatherDisplay:10.37,2013-01-28 11:03:00,
2013-01-28 06:06:00,34.5,31.3,30.41,SSE,158,0.0,0.0,88,0.00,CLR,,0.00,WeatherDisplay:10.37,2013-01-28 11:06:00,
2013-01-28 06:07:00,34.5,31.3,30.41,SSE,158,0.0,0.0,88,0.00,CLR,,0.00,WeatherDisplay:10.37,2013-01-28 11:07:00,
2013-01-28 06:09:00,34.5,31.3,30.41,SSE,158,0.0,0.0,88,0.00,CLR,,0.00,WeatherDisplay:10.37,2013-01-28 11:09:00,
2013-01-28 06:11:00,34.4,31.2,30.41,SSE,158,0.0,0.0,88,0.00,CLR,,0.00,WeatherDisplay:10.37,2013-01-28 11:11:00,
2013-01-28 06:12:00,34.5,31.6,30.41,WSW,257,0.0,0.0,89,0.00,CLR,,0.00,WeatherDisplay:10.37,2013-01-28 11:12:00,
2013-01-28 06:14:00,34.5,31.6,30.41,WSW,257,0.0,0.0,89,0.00,CLR,,0.00,WeatherDisplay:10.37,2013-01-28 11:14:00,
2013-01-28 06:16:00,34.5,31.6,30.41,WSW,257,0.0,0.0,89,0.00,CLR,,0.00,WeatherDisplay:10.37,2013-01-28 11:16:00,
2013-01-28 06:17:00,34.5,31.6,30.41,WSW,257,0.0,0.0,89,0.00,CLR,,0.00,WeatherDisplay:10.37,2013-01-28 11:17:00,
2013-01-28 06:19:00,34.5,31.6,30.41,WSW,257,0.0,0.0,89,0.00,CLR,,0.00,WeatherDisplay:10.37,2013-01-28 11:19:00,
2013-01-28 06:21:00,34.5,31.6,30.42,WSW,257,0.0,0.0,89,0.00,CLR,,0.00,WeatherDisplay:10.37,2013-01-28 11:21:00,
2013-01-28 06:22:00,34.5,31.6,30.42,WSW,257,0.0,0.0,89,0.00,CLR,,0.00,WeatherDisplay:10.37,2013-01-28 11:22:00,
2013-01-28 06:23:00,34.5,31.6,30.42,WSW,257,0.0,0.0,89,0.00,CLR,,0.00,WeatherDisplay:10.37,2013-01-28 11:23:00,
2013-01-28 06:24:00,34.5,31.6,30.42,WSW,257,0.0,0.0,89,0.00,CLR,,0.00,WeatherDisplay:10.37,2013-01-28 11:24:00,
2013-01-28 06:26:00,34.5,31.6,30.42,WSW,257,0.0,0.0,89,0.00,CLR,,0.00,WeatherDisplay:10.37,2013-01-28 11:26:00,
2013-01-28 06:27:00,34.5,31.6,30.42,WSW,257,0.0,0.0,89,0.00,CLR,,0.00,WeatherDisplay:10.37,2013-01-28 11:27:00,
2013-01-28 06:28:00,34.5,31.6,30.42,WSW,257,0.0,0.0,89,0.00,CLR,,0.00,WeatherDisplay:10.37,2013-01-28 11:28:00,
2013-01-28 06:29:00,34.5,31.6,30.42,WSW,257,0.0,0.0,89,0.00,CLR,,0.00,WeatherDisplay:10.37,2013-01-28 11:29:00,
2013-01-28 06:31:00,34.5,31.6,30.42,WSW,257,0.0,0.0,89,0.00,CLR,,0.00,WeatherDisplay:10.37,2013-01-28 11:31:00,
2013-01-28 06:32:00,34.5,31.6,30.42,WSW,257,0.0,0.0,89,0.00,CLR,,0.00,WeatherDisplay:10.37,2013-01-28 11:32:00,
2013-01-28 06:33:00,34.5,31.6,30.42,WSW,257,0.0,0.0,89,0.00,CLR,,0.00,WeatherDisplay:10.37,2013-01-28 11:33:00,
2013-01-28 06:34:00,34.5,31.6,30.42,WSW,257,0.0,0.0,89,0.00,CLR,,0.00,WeatherDisplay:10.37,2013-01-28 11:34:00,
2013-01-28 06:36:00,34.5,31.6,30.42,WSW,257,1.1,0.0,89,0.00,CLR,,0.00,WeatherDisplay:10.37,2013-01-28 11:36:00,
2013-01-28 06:37:00,34.5,31.6,30.42,WSW,257,0.0,0.0,89,0.00,CLR,,0.00,WeatherDisplay:10.37,2013-01-28 11:37:00,
2013-01-28 06:39:00,34.5,31.6,30.42,WSW,257,0.0,0.0,89,0.00,CLR,,0.00,WeatherDisplay:10.37,2013-01-28 11:39:00,
2013-01-28 06:40:00,34.5,31.6,30.42,WSW,257,0.0,0.0,89,0.00,CLR,,0.00,WeatherDisplay:10.37,2013-01-28 11:40:00,
2013-01-28 06:41:00,34.5,31.6,30.42,WSW,257,0.0,0.3,89,0.00,CLR,,0.00,WeatherDisplay:10.37,2013-01-28 11:41:00,
2013-01-28 06:42:00,34.5,31.6,30.42,WSW,257,1.1,0.0,89,0.00,CLR,,0.00,WeatherDisplay:10.37,2013-01-28 11:42:00,
2013-01-28 06:44:00,34.6,31.7,30.42,WSW,257,1.1,0.0,89,0.00,CLR,,0.00,WeatherDisplay:10.37,2013-01-28 11:44:00,
2013-01-28 06:46:00,34.6,31.7,30.42,WSW,257,0.0,0.0,89,0.00,CLR,,0.00,WeatherDisplay:10.37,2013-01-28 11:46:00,
2013-01-28 06:47:00,34.6,31.7,30.42,WSW,257,0.0,0.0,89,0.00,CLR,,0.00,WeatherDisplay:10.37,2013-01-28 11:47:00,
2013-01-28 06:50:00,34.7,31.8,30.42,WSW,257,0.0,0.0,89,0.00,CLR,,0.00,WeatherDisplay:10.37,2013-01-28 11:50:00,
2013-01-28 06:51:00,34.7,31.8,30.42,WSW,257,0.0,0.0,89,0.00,CLR,,0.00,WeatherDisplay:10.37,2013-01-28 11:51:00,
2013-01-28 06:52:00,34.7,31.5,30.43,WSW,257,1.0,1.0,88,0.00,CLR,,0.00,WeatherDisplay:10.37,2013-01-28 11:52:00,
2013-01-28 06:53:00,34.7,31.5,30.42,WSW,257,1.1,0.0,88,0.00,CLR,,0.00,WeatherDisplay:10.37,2013-01-28 11:53:00,
2013-01-28 06:55:00,34.8,31.6,30.42,WSW,257,0.0,1.0,88,0.00,CLR,,0.00,WeatherDisplay:10.37,2013-01-28 11:55:00,
2013-01-28 06:56:00,34.8,31.6,30.43,WSW,257,0.0,0.0,88,0.00,CLR,,0.00,WeatherDisplay:10.37,2013-01-28 11:56:00,
2013-01-28 06:58:00,34.8,31.6,30.43,WSW,257,0.0,0.0,88,0.00,CLR,,0.00,WeatherDisplay:10.37,2013-01-28 11:58:00,
2013-01-28 07:00:00,34.9,31.7,30.43,WSW,257,0.0,0.0,88,0.00,CLR,,0.00,WeatherDisplay:10.37,2013-01-28 12:00:00,
2013-01-28 07:01:00,34.9,31.7,30.43,WSW,257,0.0,0.0,88,0.00,CLR,,0.00,WeatherDisplay:10.37,2013-01-28 12:01:00,
2013-01-28 07:03:00,34.9,31.7,30.43,WSW,257,0.0,0.0,88,0.00,CLR,,0.00,WeatherDisplay:10.37,2013-01-28 12:03:00,
2013-01-28 07:04:00,34.9,31.7,30.42,WSW,257,0.0,0.0,88,0.00,CLR,,0.00,WeatherDisplay:10.37,2013-01-28 12:04:00,
2013-01-28 07:05:00,34.9,31.7,30.43,WSW,257,0.0,0.0,88,0.00,CLR,,0.00,WeatherDisplay:10.37,2013-01-28 12:05:00,
2013-01-28 07:06:00,34.9,32.0,30.43,WSW,257,0.0,0.0,89,0.00,CLR,,0.00,WeatherDisplay:10.37,2013-01-28 12:06:00,
2013-01-28 07:09:00,35.0,32.1,30.42,WSW,257,1.1,0.0,89,0.00,CLR,,0.00,WeatherDisplay:10.37,2013-01-28 12:09:00,
2013-01-28 07:11:00,35.0,31.8,30.42,WSW,240,1.1,1.1,88,0.00,CLR,,0.00,WeatherDisplay:10.37,2013-01-28 12:11:00,
2013-01-28 07:12:00,35.0,31.8,30.42,WSW,240,1.1,1.1,88,0.00,CLR,,0.00,WeatherDisplay:10.37,2013-01-28 12:12:00,
2013-01-28 07:14:00,35.1,31.9,30.42,WSW,241,0.0,0.0,88,0.00,CLR,,0.00,WeatherDisplay:10.37,2013-01-28 12:14:00,
2013-01-28 07:16:00,35.1,31.9,30.42,WSW,241,0.0,0.0,88,0.00,CLR,,0.00,WeatherDisplay:10.37,2013-01-28 12:16:00,
2013-01-28 07:17:00,35.1,31.9,30.42,WSW,241,0.0,0.0,88,0.00,CLR,,0.00,WeatherDisplay:10.37,2013-01-28 12:17:00,
2013-01-28 07:19:00,35.1,31.9,30.42,WSW,241,0.0,0.0,88,0.00,CLR,,0.00,WeatherDisplay:10.37,2013-01-28 12:19:00,
2013-01-28 07:21:00,35.1,31.9,30.42,WSW,241,0.0,0.0,88,0.00,CLR,,0.00,WeatherDisplay:10.37,2013-01-28 12:21:00,
2013-01-28 07:22:00,35.2,32.0,30.42,WSW,240,1.1,1.1,88,0.00,CLR,,0.00,WeatherDisplay:10.37,2013-01-28 12:22:00,
2013-01-28 07:24:00,35.2,32.0,30.42,WSW,241,1.1,1.1,88,0.00,CLR,,0.00,WeatherDisplay:10.37,2013-01-28 12:24:00,
2013-01-28 07:25:00,35.2,32.0,30.42,ESE,113,1.1,1.1,88,0.00,CLR,,0.00,WeatherDisplay:10.37,2013-01-28 12:25:00,
2013-01-28 07:26:00,35.2,32.0,30.42,East,89,1.1,1.1,88,0.00,CLR,,0.00,WeatherDisplay:10.37,2013-01-28 12:26:00,
2013-01-28 07:28:00,35.2,32.0,30.42,East,89,0.0,0.0,88,0.00,CLR,,0.00,WeatherDisplay:10.37,2013-01-28 12:28:00,
2013-01-28 07:29:00,35.2,32.0,30.43,East,89,0.0,0.1,88,0.00,CLR,,0.00,WeatherDisplay:10.37,2013-01-28 12:29:00,
2013-01-28 07:30:00,35.2,32.0,30.42,East,89,1.1,1.1,88,0.00,CLR,,0.00,WeatherDisplay:10.37,2013-01-28 12:30:00,
2013-01-28 07:32:00,35.2,32.0,30.42,East,89,1.1,1.1,88,0.00,CLR,,0.00,WeatherDisplay:10.37,2013-01-28 12:32:00,
2013-01-28 07:33:00,35.2,32.0,30.42,East,99,1.1,1.1,88,0.00,CLR,,0.00,WeatherDisplay:10.37,2013-01-28 12:33:00,
2013-01-28 07:34:00,35.2,32.0,30.42,East,98,1.1,1.1,88,0.00,CLR,,0.00,WeatherDisplay:10.37,2013-01-28 12:34:00,
2013-01-28 07:35:00,35.2,32.0,30.42,SE,130,1.1,1.1,88,0.00,CLR,,0.00,WeatherDisplay:10.37,2013-01-28 12:35:00,
2013-01-28 07:37:00,35.2,32.0,30.42,SE,144,1.1,1.1,88,0.00,CLR,,0.00,WeatherDisplay:10.37,2013-01-28 12:37:00,
2013-01-28 07:38:00,35.2,32.0,30.42,SE,144,1.1,1.1,88,0.00,CLR,,0.00,WeatherDisplay:10.37,2013-01-28 12:38:00,
2013-01-28 07:39:00,35.3,32.1,30.41,SE,144,1.1,1.1,88,0.00,CLR,,0.00,WeatherDisplay:10.37,2013-01-28 12:39:00,
2013-01-28 07:40:00,35.2,32.0,30.41,SE,141,1.1,1.1,88,0.00,CLR,,0.00,WeatherDisplay:10.37,2013-01-28 12:40:00,
2013-01-28 07:43:00,35.2,32.0,30.41,SE,141,1.1,1.1,88,0.00,CLR,,0.00,WeatherDisplay:10.37,2013-01-28 12:43:00,
2013-01-28 07:45:00,35.2,32.0,30.41,SE,141,1.1,0.0,88,0.00,CLR,,0.00,WeatherDisplay:10.37,2013-01-28 12:45:00,
2013-01-28 07:48:00,35.2,32.0,30.42,SE,141,0.0,0.0,88,0.00,CLR,,0.00,WeatherDisplay:10.37,2013-01-28 12:48:00,
2013-01-28 07:50:00,35.2,32.0,30.41,SE,141,0.0,0.0,88,0.00,CLR,,0.00,WeatherDisplay:10.37,2013-01-28 12:50:00,
2013-01-28 07:53:00,35.2,32.0,30.41,SE,141,0.0,0.0,88,0.00,CLR,,0.00,WeatherDisplay:10.37,2013-01-28 12:53:00,
2013-01-28 07:55:00,35.3,32.1,30.41,SE,141,0.0,0.0,88,0.00,CLR,,0.00,WeatherDisplay:10.37,2013-01-28 12:55:00,
2013-01-28 07:58:00,35.3,32.1,30.42,SE,141,0.0,0.0,88,0.00,CLR,,0.00,WeatherDisplay:10.37,2013-01-28 12:58:00,
2013-01-28 07:59:00,35.3,32.1,30.42,SE,141,0.0,0.0,88,0.00,CLR,,0.00,WeatherDisplay:10.37,2013-01-28 12:59:00,
2013-01-28 08:00:00,35.3,32.1,30.42,SE,141,1.0,1.0,88,0.00,CLR,,0.00,WeatherDisplay:10.37,2013-01-28 13:00:00,
2013-01-28 08:03:00,35.4,32.2,30.42,SE,141,0.0,0.0,88,0.00,CLR,,0.00,WeatherDisplay:10.37,2013-01-28 13:03:00,
2013-01-28 08:04:00,35.3,32.1,30.42,SE,141,0.0,0.0,88,0.00,CLR,,0.00,WeatherDisplay:10.37,2013-01-28 13:04:00,
2013-01-28 08:05:00,35.4,32.2,30.42,SE,141,0.0,0.0,88,0.00,CLR,,0.00,WeatherDisplay:10.37,2013-01-28 13:05:00,
2013-01-28 08:09:00,35.4,32.2,30.42,SE,141,0.0,0.0,88,0.00,CLR,,0.00,WeatherDisplay:10.37,2013-01-28 13:09:00,
2013-01-28 08:10:00,35.5,32.3,30.42,SE,141,1.1,1.1,88,0.00,CLR,,0.00,WeatherDisplay:10.37,2013-01-28 13:10:00,
2013-01-28 08:11:00,35.5,32.3,30.42,SE,141,0.0,0.0,88,0.00,CLR,,0.00,WeatherDisplay:10.37,2013-01-28 13:11:00,
2013-01-28 08:14:00,35.6,32.4,30.42,SE,141,1.1,1.1,88,0.00,CLR,,0.00,WeatherDisplay:10.37,2013-01-28 13:14:00,
2013-01-28 08:16:00,35.6,32.4,30.42,SE,141,1.0,0.0,88,0.00,CLR,,0.00,WeatherDisplay:10.37,2013-01-28 13:16:00,
2013-01-28 08:19:00,35.7,32.5,30.42,SE,141,0.0,0.0,88,0.00,CLR,,0.00,WeatherDisplay:10.37,2013-01-28 13:19:00,
2013-01-28 08:22:00,35.7,32.2,30.42,SE,141,0.0,0.0,87,0.00,CLR,,0.00,WeatherDisplay:10.37,2013-01-28 13:22:00,
2013-01-28 08:24:00,35.7,32.2,30.42,SE,141,0.0,0.0,87,0.00,CLR,,0.00,WeatherDisplay:10.37,2013-01-28 13:24:00,
2013-01-28 08:25:00,35.8,32.3,30.42,SE,141,0.0,0.0,87,0.00,CLR,,0.00,WeatherDisplay:10.37,2013-01-28 13:25:00,
2013-01-28 08:27:00,35.8,32.3,30.42,SE,141,0.0,0.0,87,0.00,CLR,,0.00,WeatherDisplay:10.37,2013-01-28 13:27:00,
2013-01-28 08:28:00,35.8,32.3,30.42,SE,141,0.0,0.0,87,0.00,CLR,,0.00,WeatherDisplay:10.37,2013-01-28 13:28:00,
2013-01-28 08:30:00,35.9,32.4,30.42,SE,141,0.0,0.0,87,0.00,CLR,,0.00,WeatherDisplay:10.37,2013-01-28 13:30:00,
2013-01-28 08:33:00,35.9,32.4,30.41,SE,141,0.0,0.0,87,0.00,CLR,,0.00,WeatherDisplay:10.37,2013-01-28 13:33:00,
2013-01-28 08:35:00,36.0,32.5,30.41,SE,141,0.0,0.0,87,0.00,CLR,,0.00,WeatherDisplay:10.37,2013-01-28 13:35:00,
2013-01-28 08:36:00,36.0,32.5,30.41,SE,141,0.0,0.0,87,0.00,CLR,,0.00,WeatherDisplay:10.37,2013-01-28 13:36:00,
2013-01-28 08:38:00,36.1,32.6,30.41,SE,141,0.0,0.0,87,0.00,CLR,,0.00,WeatherDisplay:10.37,2013-01-28 13:38:00,
2013-01-28 08:39:00,36.1,32.6,30.42,SE,141,0.0,0.0,87,0.00,CLR,,0.00,WeatherDisplay:10.37,2013-01-28 13:39:00,
2013-01-28 08:41:00,36.2,32.7,30.42,SE,141,0.0,0.0,87,0.00,CLR,,0.00,WeatherDisplay:10.37,2013-01-28 13:41:00,
2013-01-28 08:43:00,36.3,32.8,30.41,SE,141,0.0,0.0,87,0.00,CLR,,0.00,WeatherDisplay:10.37,2013-01-28 13:43:00,
2013-01-28 08:44:00,36.3,32.8,30.41,SE,141,0.0,0.0,87,0.00,CLR,,0.00,WeatherDisplay:10.37,2013-01-28 13:44:00,
2013-01-28 08:46:00,36.4,32.9,30.41,SE,141,0.0,0.0,87,0.00,CLR,,0.00,WeatherDisplay:10.37,2013-01-28 13:46:00,
2013-01-28 08:48:00,36.5,33.0,30.41,SE,141,0.0,0.0,87,0.00,CLR,,0.00,WeatherDisplay:10.37,2013-01-28 13:48:00,
2013-01-28 08:49:00,36.5,33.0,30.41,SE,141,0.0,0.0,87,0.00,CLR,,0.00,WeatherDisplay:10.37,2013-01-28 13:49:00,
2013-01-28 08:51:00,36.6,32.8,30.41,SE,141,0.0,0.0,86,0.00,CLR,,0.00,WeatherDisplay:10.37,2013-01-28 13:51:00,
2013-01-28 08:52:00,36.6,32.8,30.41,SE,141,0.0,0.0,86,0.00,CLR,,0.00,WeatherDisplay:10.37,2013-01-28 13:52:00,
2013-01-28 08:53:00,36.7,33.2,30.41,SE,141,0.0,0.0,87,0.00,CLR,,0.00,WeatherDisplay:10.37,2013-01-28 13:53:00,
2013-01-28 08:55:00,36.8,33.3,30.41,SE,141,0.0,0.0,87,0.00,CLR,,0.00,WeatherDisplay:10.37,2013-01-28 13:55:00,
2013-01-28 08:56:00,36.9,33.1,30.41,SE,141,1.0,1.0,86,0.00,CLR,,0.00,WeatherDisplay:10.37,2013-01-28 13:56:00,
2013-01-28 08:57:00,36.9,33.1,30.41,SE,141,1.1,1.1,86,0.00,CLR,,0.00,WeatherDisplay:10.37,2013-01-28 13:57:00,
2013-01-28 08:58:00,36.9,33.1,30.41,SE,141,1.1,0.0,86,0.00,CLR,,0.00,WeatherDisplay:10.37,2013-01-28 13:58:00,
2013-01-28 09:00:00,37.0,33.2,30.41,SE,141,1.1,1.1,86,0.00,CLR,,0.00,WeatherDisplay:10.37,2013-01-28 14:00:00,
2013-01-28 09:02:00,37.1,33.0,30.41,SE,141,2.3,2.3,85,0.00,CLR,,0.00,WeatherDisplay:10.37,2013-01-28 14:02:00,
2013-01-28 09:04:00,37.2,33.1,30.41,East,98,1.1,1.1,85,0.00,CLR,,0.00,WeatherDisplay:10.37,2013-01-28 14:04:00,
2013-01-28 09:05:00,37.2,32.8,30.41,East,98,1.1,1.1,84,0.00,CLR,,0.00,WeatherDisplay:10.37,2013-01-28 14:05:00,
2013-01-28 09:07:00,37.2,33.1,30.41,East,98,1.1,1.1,85,0.00,CLR,,0.00,WeatherDisplay:10.37,2013-01-28 14:07:00,
2013-01-28 09:09:00,37.3,33.2,30.41,East,99,1.1,1.1,85,0.00,CLR,,0.00,WeatherDisplay:10.37,2013-01-28 14:09:00,
2013-01-28 09:10:00,37.4,33.3,30.41,East,98,2.0,2.0,85,0.00,CLR,,0.00,WeatherDisplay:10.37,2013-01-28 14:10:00,
2013-01-28 09:12:00,37.5,33.4,30.40,East,98,2.3,2.3,85,0.00,CLR,,0.00,WeatherDisplay:10.37,2013-01-28 14:12:00,
2013-01-28 09:14:00,37.6,33.5,30.41,NE,35,2.3,2.3,85,0.00,CLR,,0.00,WeatherDisplay:10.37,2013-01-28 14:14:00,
2013-01-28 09:16:00,37.7,33.3,30.41,ENE,73,1.1,1.1,84,0.00,CLR,,0.00,WeatherDisplay:10.37,2013-01-28 14:16:00,
2013-01-28 09:17:00,37.7,33.3,30.41,ENE,74,2.3,2.3,84,0.00,CLR,,0.00,WeatherDisplay:10.37,2013-01-28 14:17:00,
2013-01-28 09:19:00,37.9,33.5,30.41,ENE,57,2.3,0.0,84,0.00,CLR,,0.00,WeatherDisplay:10.37,2013-01-28 14:19:00,
2013-01-28 09:21:00,38.1,33.7,30.41,ENE,57,1.1,1.1,84,0.00,CLR,,0.00,WeatherDisplay:10.37,2013-01-28 14:21:00,
2013-01-28 09:22:00,38.2,33.8,30.41,ENE,57,1.0,1.0,84,0.00,CLR,,0.00,WeatherDisplay:10.37,2013-01-28 14:22:00,
2013-01-28 09:24:00,38.4,34.0,30.40,NE,56,1.1,0.0,84,0.00,CLR,,0.00,WeatherDisplay:10.37,2013-01-28 14:24:00,
2013-01-28 09:27:00,38.6,33.9,30.40,East,88,1.1,1.1,83,0.00,CLR,,0.00,WeatherDisplay:10.37,2013-01-28 14:27:00,
2013-01-28 09:28:00,38.6,33.9,30.41,East,88,2.0,2.0,83,0.00,CLR,,0.00,WeatherDisplay:10.37,2013-01-28 14:28:00,
2013-01-28 09:29:00,38.7,34.0,30.40,SE,134,2.3,2.3,83,0.00,CLR,,0.00,WeatherDisplay:10.37,2013-01-28 14:29:00,
2013-01-28 09:32:00,38.8,34.1,30.40,East,99,1.1,1.1,83,0.00,CLR,,0.00,WeatherDisplay:10.37,2013-01-28 14:32:00,
2013-01-28 09:33:00,38.8,33.8,30.40,East,99,2.3,2.3,82,0.00,CLR,,0.00,WeatherDisplay:10.37,2013-01-28 14:33:00,
2013-01-28 09:35:00,39.0,34.3,30.40,East,99,1.1,1.1,83,0.00,CLR,,0.00,WeatherDisplay:10.37,2013-01-28 14:35:00,
2013-01-28 09:37:00,39.1,34.1,30.40,East,99,1.1,0.0,82,0.00,CLR,,0.00,WeatherDisplay:10.37,2013-01-28 14:37:00,
2013-01-28 09:38:00,39.1,34.4,30.40,East,99,0.0,0.0,83,0.00,CLR,,0.00,WeatherDisplay:10.37,2013-01-28 14:38:00,
2013-01-28 09:39:00,39.2,34.5,30.40,East,99,0.0,0.0,83,0.00,CLR,,0.00,WeatherDisplay:10.37,2013-01-28 14:39:00,
2013-01-28 09:40:00,39.3,34.6,30.40,East,99,0.0,0.0,83,0.00,CLR,,0.00,WeatherDisplay:10.37,2013-01-28 14:40:00,
2013-01-28 09:42:00,39.4,34.4,30.40,East,99,1.1,1.1,82,0.00,CLR,,0.00,WeatherDisplay:10.37,2013-01-28 14:42:00,
2013-01-28 09:43:00,39.4,34.4,30.40,East,99,1.1,1.1,82,0.00,CLR,,0.00,WeatherDisplay:10.37,2013-01-28 14:43:00,
2013-01-28 09:44:00,39.4,34.4,30.40,East,99,1.1,1.1,82,0.00,CLR,,0.00,WeatherDisplay:10.37,2013-01-28 14:44:00,
2013-01-28 09:45:00,39.5,34.5,30.40,East,99,0.0,0.0,82,0.00,CLR,,0.00,WeatherDisplay:10.37,2013-01-28 14:45:00,
2013-01-28 09:48:00,39.7,35.0,30.40,East,99,1.1,1.1,83,0.00,CLR,,0.00,WeatherDisplay:10.37,2013-01-28 14:48:00,
2013-01-28 09:49:00,39.9,35.2,30.40,East,99,1.1,1.1,83,0.00,CLR,,0.00,WeatherDisplay:10.37,2013-01-28 14:49:00,
2013-01-28 09:50:00,40.0,34.9,30.40,East,99,1.1,1.1,82,0.00,CLR,,0.00,WeatherDisplay:10.37,2013-01-28 14:50:00,
2013-01-28 09:53:00,40.3,34.9,30.40,East,93,2.3,2.3,81,0.00,CLR,,0.00,WeatherDisplay:10.37,2013-01-28 14:53:00,
2013-01-28 09:55:00,40.5,34.8,30.40,East,96,2.3,2.3,80,0.00,CLR,,0.00,WeatherDisplay:10.37,2013-01-28 14:55:00,
2013-01-28 09:58:00,40.8,35.4,30.40,SSE,149,2.3,2.3,81,0.00,CLR,,0.00,WeatherDisplay:10.37,2013-01-28 14:58:00,
2013-01-28 10:00:00,41.1,35.7,30.40,SSE,148,0.0,0.0,81,0.00,CLR,,0.00,WeatherDisplay:10.37,2013-01-28 15:00:00,
2013-01-28 10:03:00,41.3,35.3,30.39,SE,136,1.1,1.1,79,0.00,CLR,,0.00,WeatherDisplay:10.37,2013-01-28 15:03:00,
2013-01-28 10:04:00,41.3,35.3,30.39,SE,129,1.1,1.1,79,0.00,CLR,,0.00,WeatherDisplay:10.37,2013-01-28 15:04:00,
2013-01-28 10:05:00,41.5,35.5,30.39,NNE,25,1.1,1.1,79,0.00,CLR,,0.00,WeatherDisplay:10.37,2013-01-28 15:05:00,
2013-01-28 10:06:00,41.5,35.5,30.39,NNE,25,2.3,2.3,79,0.00,CLR,,0.00,WeatherDisplay:10.37,2013-01-28 15:06:00,
2013-01-28 10:08:00,41.7,35.7,30.39,North,6,2.3,2.3,79,0.00,CLR,,0.00,WeatherDisplay:10.37,2013-01-28 15:08:00,
2013-01-28 10:09:00,41.7,35.3,30.39,East,101,3.5,3.5,78,0.00,CLR,,0.00,WeatherDisplay:10.37,2013-01-28 15:09:00,
2013-01-28 10:10:00,41.8,35.4,30.39,East,96,3.5,3.5,78,0.00,CLR,,0.00,WeatherDisplay:10.37,2013-01-28 15:10:00,
2013-01-28 10:11:00,41.9,35.5,30.39,East,96,2.3,2.3,78,0.00,CLR,,0.00,WeatherDisplay:10.37,2013-01-28 15:11:00,
2013-01-28 10:13:00,41.9,35.2,30.39,East,84,2.3,2.3,77,0.00,CLR,,0.00,WeatherDisplay:10.37,2013-01-28 15:13:00,
2013-01-28 10:14:00,42.0,35.6,30.39,East,84,1.1,1.1,78,0.00,CLR,,0.00,WeatherDisplay:10.37,2013-01-28 15:14:00,
2013-01-28 10:16:00,42.2,35.8,30.39,East,80,1.1,1.1,78,0.00,CLR,,0.00,WeatherDisplay:10.37,2013-01-28 15:16:00,
2013-01-28 10:18:00,42.5,36.4,30.39,SE,127,2.0,2.0,79,0.00,CLR,,0.00,WeatherDisplay:10.37,2013-01-28 15:18:00,
2013-01-28 10:19:00,42.6,36.2,30.39,ESE,118,3.5,3.5,78,0.00,CLR,,0.00,WeatherDisplay:10.37,2013-01-28 15:19:00,
2013-01-28 10:21:00,42.7,36.0,30.38,SE,140,2.3,2.3,77,0.00,CLR,,0.00,WeatherDisplay:10.37,2013-01-28 15:21:00,
2013-01-28 10:23:00,43.0,36.0,30.38,SE,140,1.1,1.1,76,0.00,CLR,,0.00,WeatherDisplay:10.37,2013-01-28 15:23:00,
2013-01-28 10:25:00,43.1,36.0,30.38,ESE,114,0.0,2.0,76,0.00,CLR,,0.00,WeatherDisplay:10.37,2013-01-28 15:25:00,
2013-01-28 10:26:00,43.3,36.2,30.38,SE,140,1.1,1.1,76,0.00,CLR,,0.00,WeatherDisplay:10.37,2013-01-28 15:26:00,
2013-01-28 10:27:00,43.3,36.2,30.38,ESE,112,2.0,2.0,76,0.00,CLR,,0.00,WeatherDisplay:10.37,2013-01-28 15:27:00,
2013-01-28 10:28:00,43.5,36.4,30.38,ESE,106,2.3,2.3,76,0.00,CLR,,0.00,WeatherDisplay:10.37,2013-01-28 15:28:00,
2013-01-28 10:30:00,43.6,36.5,30.38,SE,124,1.0,2.0,76,0.00,CLR,,0.00,WeatherDisplay:10.37,2013-01-28 15:30:00,
2013-01-28 10:31:00,43.7,36.6,30.38,ESE,106,1.1,1.1,76,0.00,CLR,,0.00,WeatherDisplay:10.37,2013-01-28 15:31:00,
2013-01-28 10:32:00,43.7,36.6,30.38,ESE,106,1.1,1.1,76,0.00,CLR,,0.00,WeatherDisplay:10.37,2013-01-28 15:32:00,
2013-01-28 10:34:00,44.1,36.7,30.38,ESE,106,1.0,1.0,75,0.00,CLR,,0.00,WeatherDisplay:10.37,2013-01-28 15:34:00,
2013-01-28 10:35:00,44.2,36.8,30.38,ESE,106,1.1,1.1,75,0.00,CLR,,0.00,WeatherDisplay:10.37,2013-01-28 15:35:00,
2013-01-28 10:36:00,44.5,37.1,30.38,ESE,106,1.1,1.1,75,0.00,CLR,,0.00,WeatherDisplay:10.37,2013-01-28 15:36:00,
2013-01-28 10:37:00,44.6,37.2,30.38,ESE,106,0.0,0.0,75,0.00,CLR,,0.00,WeatherDisplay:10.37,2013-01-28 15:37:00,
2013-01-28 10:39:00,45.2,37.4,30.38,SE,130,2.3,2.3,74,0.00,CLR,,0.00,WeatherDisplay:10.37,2013-01-28 15:39:00,
2013-01-28 10:40:00,45.2,37.4,30.38,SE,130,2.3,2.3,74,0.00,CLR,,0.00,WeatherDisplay:10.37,2013-01-28 15:40:00,
2013-01-28 10:42:00,45.5,37.7,30.38,SE,132,0.0,0.0,74,0.00,CLR,,0.00,WeatherDisplay:10.37,2013-01-28 15:42:00,
2013-01-28 10:44:00,46.1,38.3,30.38,SE,132,0.0,0.0,74,0.00,CLR,,0.00,WeatherDisplay:10.37,2013-01-28 15:44:00,
2013-01-28 10:45:00,46.3,38.1,30.38,SE,133,0.0,0.1,73,0.00,CLR,,0.00,WeatherDisplay:10.37,2013-01-28 15:45:00,
2013-01-28 10:47:00,46.6,37.7,30.38,SE,134,1.1,0.0,71,0.00,CLR,,0.00,WeatherDisplay:10.37,2013-01-28 15:47:00,
2013-01-28 10:49:00,46.9,38.0,30.38,SE,124,1.1,0.0,71,0.00,CLR,,0.00,WeatherDisplay:10.37,2013-01-28 15:49:00,
2013-01-28 10:50:00,47.0,38.4,30.38,SE,125,0.0,0.0,72,0.00,CLR,,0.00,WeatherDisplay:10.37,2013-01-28 15:50:00,
2013-01-28 10:52:00,47.5,38.9,30.38,SE,125,0.0,0.0,72,0.00,CLR,,0.00,WeatherDisplay:10.37,2013-01-28 15:52:00,
2013-01-28 10:55:00,48.0,39.4,30.38,SE,125,0.0,0.0,72,0.00,CLR,,0.00,WeatherDisplay:10.37,2013-01-28 15:55:00,
2013-01-28 10:58:00,48.3,38.6,30.38,SE,124,1.1,1.1,69,0.00,CLR,,0.00,WeatherDisplay:10.37,2013-01-28 15:58:00,
2013-01-28 10:59:00,48.3,38.6,30.38,SE,124,0.0,0.0,69,0.00,CLR,,0.00,WeatherDisplay:10.37,2013-01-28 15:59:00,
2013-01-28 11:00:00,48.3,38.6,30.38,SE,125,1.1,1.1,69,0.00,CLR,,0.00,WeatherDisplay:10.37,2013-01-28 16:00:00,
2013-01-28 11:03:00,48.5,38.8,30.38,West,268,2.3,2.3,69,0.00,CLR,,0.00,WeatherDisplay:10.37,2013-01-28 16:03:00,
2013-01-28 11:05:00,48.8,39.1,30.38,WSW,255,0.0,0.0,69,0.00,CLR,,0.00,WeatherDisplay:10.37,2013-01-28 16:05:00,
2013-01-28 11:06:00,49.0,38.9,30.37,WSW,253,1.1,1.1,68,0.00,CLR,,0.00,WeatherDisplay:10.37,2013-01-28 16:06:00,
2013-01-28 11:08:00,49.2,39.1,30.37,WSW,256,1.0,1.0,68,0.00,CLR,,0.00,WeatherDisplay:10.37,2013-01-28 16:08:00,
2013-01-28 11:10:00,49.5,39.0,30.37,WNW,283,2.3,2.3,67,0.00,CLR,,0.00,WeatherDisplay:10.37,2013-01-28 16:10:00,
2013-01-28 11:11:00,49.7,39.2,30.37,West,276,2.3,2.3,67,0.00,CLR,,0.00,WeatherDisplay:10.37,2013-01-28 16:11:00,
2013-01-28 11:13:00,49.9,39.0,30.37,West,260,3.5,3.5,66,0.00,CLR,,0.00,WeatherDisplay:10.37,2013-01-28 16:13:00,
2013-01-28 11:15:00,50.0,39.1,30.37,WSW,258,1.1,1.1,66,0.00,CLR,,0.00,WeatherDisplay:10.37,2013-01-28 16:15:00,
2013-01-28 11:16:00,50.2,38.9,30.36,WSW,258,0.0,0.2,65,0.00,CLR,,0.00,WeatherDisplay:10.37,2013-01-28 16:16:00,
2013-01-28 11:18:00,50.4,39.1,30.36,WSW,258,1.1,1.1,65,0.00,CLR,,0.00,WeatherDisplay:10.37,2013-01-28 16:18:00,
2013-01-28 11:20:00,50.5,39.6,30.36,WSW,258,1.1,1.1,66,0.00,CLR,,0.00,WeatherDisplay:10.37,2013-01-28 16:20:00,
2013-01-28 11:21:00,50.6,39.7,30.36,WSW,258,1.1,1.1,66,0.00,CLR,,0.00,WeatherDisplay:10.37,2013-01-28 16:21:00,
2013-01-28 11:23:00,51.0,39.6,30.36,West,267,0.0,0.1,65,0.00,CLR,,0.00,WeatherDisplay:10.37,2013-01-28 16:23:00,
2013-01-28 11:25:00,51.2,39.8,30.36,West,267,1.1,0.0,65,0.00,CLR,,0.00,WeatherDisplay:10.37,2013-01-28 16:25:00,
2013-01-28 11:26:00,51.4,40.0,30.36,West,267,0.0,0.0,65,0.00,CLR,,0.00,WeatherDisplay:10.37,2013-01-28 16:26:00,
2013-01-28 11:27:00,51.6,40.6,30.36,West,263,1.1,1.1,66,0.00,CLR,,0.00,WeatherDisplay:10.37,2013-01-28 16:27:00,
2013-01-28 11:29:00,51.8,39.6,30.36,SW,236,1.1,1.1,63,0.00,CLR,,0.00,WeatherDisplay:10.37,2013-01-28 16:29:00,
2013-01-28 11:30:00,51.9,39.7,30.36,WSW,257,1.1,1.1,63,0.00,CLR,,0.00,WeatherDisplay:10.37,2013-01-28 16:30:00,
2013-01-28 11:31:00,52.0,39.8,30.36,WSW,255,2.0,2.0,63,0.00,CLR,,0.00,WeatherDisplay:10.37,2013-01-28 16:31:00,
2013-01-28 11:32:00,52.0,39.4,30.36,WSW,257,2.3,2.3,62,0.00,CLR,,0.00,WeatherDisplay:10.37,2013-01-28 16:32:00,
2013-01-28 11:34:00,52.0,39.8,30.36,WSW,257,0.0,0.0,63,0.00,CLR,,0.00,WeatherDisplay:10.37,2013-01-28 16:34:00,
2013-01-28 11:35:00,52.1,39.5,30.35,WSW,255,1.1,1.1,62,0.00,CLR,,0.00,WeatherDisplay:10.37,2013-01-28 16:35:00,
2013-01-28 11:36:00,52.2,40.4,30.35,WNW,298,2.0,2.0,64,0.00,CLR,,0.00,WeatherDisplay:10.37,2013-01-28 16:36:00,
2013-01-28 11:37:00,52.2,40.0,30.35,WNW,298,3.5,3.5,63,0.00,CLR,,0.00,WeatherDisplay:10.37,2013-01-28 16:37:00,
2013-01-28 11:40:00,52.3,39.7,30.35,WSW,238,3.5,3.5,62,0.00,CLR,,0.00,WeatherDisplay:10.37,2013-01-28 16:40:00,
2013-01-28 11:42:00,52.5,40.3,30.35,West,271,1.1,1.1,63,0.00,CLR,,0.00,WeatherDisplay:10.37,2013-01-28 16:42:00,
2013-01-28 11:44:00,52.6,39.9,30.35,West,271,1.1,1.1,62,0.00,CLR,,0.00,WeatherDisplay:10.37,2013-01-28 16:44:00,
2013-01-28 11:45:00,52.8,40.1,30.35,West,271,1.1,0.0,62,0.00,CLR,,0.00,WeatherDisplay:10.37,2013-01-28 16:45:00,
2013-01-28 11:48:00,53.0,40.7,30.35,West,271,1.1,1.1,63,0.00,CLR,,0.00,WeatherDisplay:10.37,2013-01-28 16:48:00,
2013-01-28 11:49:00,53.2,40.5,30.35,West,271,1.1,0.0,62,0.00,CLR,,0.00,WeatherDisplay:10.37,2013-01-28 16:49:00,
2013-01-28 11:50:00,53.4,40.7,30.35,West,271,0.0,0.0,62,0.00,CLR,,0.00,WeatherDisplay:10.37,2013-01-28 16:50:00,
2013-01-28 11:51:00,53.5,40.8,30.35,West,271,1.1,0.0,62,0.00,CLR,,0.00,WeatherDisplay:10.37,2013-01-28 16:51:00,
2013-01-28 11:53:00,53.8,41.1,30.34,WNW,297,2.3,2.3,62,0.00,CLR,,0.00,WeatherDisplay:10.37,2013-01-28 16:53:00,
2013-01-28 11:54:00,53.8,40.7,30.34,WNW,296,2.3,2.3,61,0.00,CLR,,0.00,WeatherDisplay:10.37,2013-01-28 16:54:00,
2013-01-28 11:56:00,54.0,41.7,30.34,WNW,298,3.5,3.5,63,0.00,CLR,,0.00,WeatherDisplay:10.37,2013-01-28 16:56:00,
2013-01-28 11:58:00,54.2,41.5,30.34,West,268,2.3,2.3,62,0.00,CLR,,0.00,WeatherDisplay:10.37,2013-01-28 16:58:00,
2013-01-28 11:59:00,54.4,41.6,30.34,WSW,247,2.3,2.3,62,0.00,CLR,,0.00,WeatherDisplay:10.37,2013-01-28 16:59:00,
2013-01-28 12:01:00,54.6,41.4,30.34,West,269,1.1,1.1,61,0.00,CLR,,0.00,WeatherDisplay:10.37,2013-01-28 17:01:00,
2013-01-28 12:03:00,54.9,42.1,30.33,WSW,241,5.8,5.8,62,0.00,CLR,,0.00,WeatherDisplay:10.37,2013-01-28 17:03:00,
2013-01-28 12:05:00,55.0,41.8,30.33,WSW,238,4.6,4.9,61,0.00,CLR,,0.00,WeatherDisplay:10.37,2013-01-28 17:05:00,
2013-01-28 12:06:00,55.0,41.8,30.33,West,271,5.8,5.8,61,0.00,CLR,,0.00,WeatherDisplay:10.37,2013-01-28 17:06:00,
2013-01-28 12:09:00,55.2,42.4,30.33,West,262,5.8,5.8,62,0.00,CLR,,0.00,WeatherDisplay:10.37,2013-01-28 17:09:00,
2013-01-28 12:10:00,55.2,42.4,30.32,West,279,4.6,4.6,62,0.00,CLR,,0.00,WeatherDisplay:10.37,2013-01-28 17:10:00,
2013-01-28 12:11:00,55.3,42.9,30.33,WNW,302,8.1,8.1,63,0.00,CLR,,0.00,WeatherDisplay:10.37,2013-01-28 17:11:00,
2013-01-28 12:15:00,55.4,41.7,30.32,WSW,257,6.0,10.0,60,0.00,CLR,,0.00,WeatherDisplay:10.37,2013-01-28 17:15:00,
2013-01-28 12:16:00,55.3,42.1,30.32,WSW,238,5.8,5.8,61,0.00,CLR,,0.00,WeatherDisplay:10.37,2013-01-28 17:16:00,
2013-01-28 12:20:00,55.5,42.3,30.31,WSW,253,6.9,6.9,61,0.00,CLR,,0.00,WeatherDisplay:10.37,2013-01-28 17:20:00,
2013-01-28 12:21:00,55.7,43.3,30.31,NW,313,4.0,4.0,63,0.00,CLR,,0.00,WeatherDisplay:10.37,2013-01-28 17:21:00,
2013-01-28 12:22:00,55.8,43.4,30.31,WSW,255,4.6,4.6,63,0.00,CLR,,0.00,WeatherDisplay:10.37,2013-01-28 17:22:00,
2013-01-28 12:25:00,56.0,42.3,30.31,WNW,295,3.5,3.5,60,0.00,CLR,,0.00,WeatherDisplay:10.37,2013-01-28 17:25:00,
2013-01-28 12:26:00,56.2,43.3,30.31,WSW,258,6.0,6.0,62,0.00,CLR,,0.00,WeatherDisplay:10.37,2013-01-28 17:26:00,
2013-01-28 12:27:00,56.3,43.4,30.31,WSW,248,3.5,3.5,62,0.00,CLR,,0.00,WeatherDisplay:10.37,2013-01-28 17:27:00,
2013-01-28 12:30:00,56.6,42.9,30.31,WNW,283,5.0,5.0,60,0.00,CLR,,0.00,WeatherDisplay:10.37,2013-01-28 17:30:00,
2013-01-28 12:31:00,56.7,43.4,30.30,WNW,302,5.0,5.0,61,0.00,CLR,,0.00,WeatherDisplay:10.37,2013-01-28 17:31:00,
2013-01-28 12:32:00,56.7,43.0,30.30,West,265,8.1,8.1,60,0.00,CLR,,0.00,WeatherDisplay:10.37,2013-01-28 17:32:00,
2013-01-28 12:35:00,56.9,43.6,30.30,WSW,256,4.6,4.6,61,0.00,CLR,,0.00,WeatherDisplay:10.37,2013-01-28 17:35:00,
2013-01-28 12:37:00,57.1,43.3,30.30,WSW,258,5.0,5.0,60,0.00,CLR,,0.00,WeatherDisplay:10.37,2013-01-28 17:37:00,
2013-01-28 12:38:00,57.1,42.9,30.30,West,261,8.1,8.1,59,0.00,CLR,,0.00,WeatherDisplay:10.37,2013-01-28 17:38:00,
2013-01-28 12:41:00,57.0,43.2,30.30,West,274,3.5,3.5,60,0.00,CLR,,0.00,WeatherDisplay:10.37,2013-01-28 17:41:00,
2013-01-28 12:42:00,57.2,43.9,30.30,NW,305,9.0,9.0,61,0.00,CLR,,0.00,WeatherDisplay:10.37,2013-01-28 17:42:00,
2013-01-28 12:43:00,57.3,44.0,30.30,WSW,250,9.2,9.2,61,0.00,CLR,,0.00,WeatherDisplay:10.37,2013-01-28 17:43:00,
2013-01-28 12:46:00,57.4,43.2,30.30,West,260,8.1,8.1,59,0.00,CLR,,0.00,WeatherDisplay:10.37,2013-01-28 17:46:00,
2013-01-28 12:47:00,57.3,43.1,30.30,SW,231,8.1,8.1,59,0.00,CLR,,0.00,WeatherDisplay:10.37,2013-01-28 17:47:00,
2013-01-28 12:48:00,57.2,43.4,30.30,West,265,4.6,4.6,60,0.00,CLR,,0.00,WeatherDisplay:10.37,2013-01-28 17:48:00,
2013-01-28 12:51:00,57.3,44.0,30.29,WNW,302,6.9,6.9,61,0.00,CLR,,0.00,WeatherDisplay:10.37,2013-01-28 17:51:00,
2013-01-28 12:52:00,57.4,44.1,30.29,WNW,285,8.1,8.1,61,0.00,CLR,,0.00,WeatherDisplay:10.37,2013-01-28 17:52:00,
2013-01-28 12:53:00,57.5,44.1,30.29,SW,235,6.0,6.0,61,0.00,CLR,,0.00,WeatherDisplay:10.37,2013-01-28 17:53:00,
2013-01-28 12:57:00,57.8,44.0,30.29,SW,230,8.0,8.0,60,0.00,CLR,,0.00,WeatherDisplay:10.37,2013-01-28 17:57:00,
2013-01-28 12:58:00,57.9,44.1,30.29,WSW,252,9.2,9.2,60,0.00,CLR,,0.00,WeatherDisplay:10.37,2013-01-28 17:58:00,
2013-01-28 13:02:00,58.3,44.5,30.29,NW,316,6.9,6.9,60,0.00,CLR,,0.00,WeatherDisplay:10.37,2013-01-28 18:02:00,
2013-01-28 13:03:00,58.4,44.6,30.29,WSW,245,5.8,5.8,60,0.00,CLR,,0.00,WeatherDisplay:10.37,2013-01-28 18:03:00,
2013-01-28 13:04:00,58.4,44.1,30.29,WNW,282,8.1,8.1,59,0.00,CLR,,0.00,WeatherDisplay:10.37,2013-01-28 18:04:00,
2013-01-28 13:07:00,58.7,44.4,30.29,WSW,252,6.9,6.9,59,0.00,CLR,,0.00,WeatherDisplay:10.37,2013-01-28 18:07:00,
2013-01-28 13:08:00,58.7,44.4,30.28,WNW,302,6.0,6.0,59,0.00,CLR,,0.00,WeatherDisplay:10.37,2013-01-28 18:08:00,
2013-01-28 13:09:00,58.8,44.5,30.28,West,260,6.9,6.9,59,0.00,CLR,,0.00,WeatherDisplay:10.37,2013-01-28 18:09:00,
2013-01-28 13:10:00,58.8,44.0,30.28,West,267,6.9,6.9,58,0.00,CLR,,0.00,WeatherDisplay:10.37,2013-01-28 18:10:00,
2013-01-28 13:13:00,58.7,44.0,30.28,WSW,253,5.8,5.8,58,0.00,CLR,,0.00,WeatherDisplay:10.37,2013-01-28 18:13:00,
2013-01-28 13:14:00,58.7,44.4,30.28,West,260,5.0,5.0,59,0.00,CLR,,0.00,WeatherDisplay:10.37,2013-01-28 18:14:00,
2013-01-28 13:15:00,58.9,44.1,30.28,SW,235,4.6,4.6,58,0.00,CLR,,0.00,WeatherDisplay:10.37,2013-01-28 18:15:00,
2013-01-28 13:18:00,59.2,44.4,30.28,WNW,287,9.2,9.2,58,0.00,CLR,,0.00,WeatherDisplay:10.37,2013-01-28 18:18:00,
2013-01-28 13:19:00,59.2,44.4,30.28,West,268,11.5,11.5,58,0.00,CLR,,0.00,WeatherDisplay:10.37,2013-01-28 18:19:00,
2013-01-28 13:20:00,59.2,44.4,30.28,West,269,5.0,12.0,58,0.00,CLR,,0.00,WeatherDisplay:10.37,2013-01-28 18:20:00,
2013-01-28 13:21:00,59.2,44.9,30.27,WSW,253,5.8,5.8,59,0.00,CLR,,0.00,WeatherDisplay:10.37,2013-01-28 18:21:00,
2013-01-28 13:23:00,59.2,44.4,30.27,West,271,5.8,5.8,58,0.00,CLR,,0.00,WeatherDisplay:10.37,2013-01-28 18:23:00,
2013-01-28 13:24:00,59.3,44.5,30.27,West,264,4.6,4.6,58,0.00,CLR,,0.00,WeatherDisplay:10.37,2013-01-28 18:24:00,
2013-01-28 13:25:00,59.3,44.5,30.27,WSW,247,9.2,9.2,58,0.00,CLR,,0.00,WeatherDisplay:10.37,2013-01-28 18:25:00,
2013-01-28 13:26:00,59.3,44.5,30.27,West,265,11.5,11.5,58,0.00,CLR,,0.00,WeatherDisplay:10.37,2013-01-28 18:26:00,
2013-01-28 13:29:00,59.3,44.1,30.27,NW,306,11.5,11.5,57,0.00,CLR,,0.00,WeatherDisplay:10.37,2013-01-28 18:29:00,
2013-01-28 13:30:00,59.1,43.9,30.27,WSW,243,8.1,8.1,57,0.00,CLR,,0.00,WeatherDisplay:10.37,2013-01-28 18:30:00,
2013-01-28 13:31:00,59.0,44.2,30.26,WSW,255,6.9,6.9,58,0.00,CLR,,0.00,WeatherDisplay:10.37,2013-01-28 18:31:00,
2013-01-28 13:34:00,58.6,43.4,30.26,WSW,255,10.4,10.4,57,0.00,CLR,,0.00,WeatherDisplay:10.37,2013-01-28 18:34:00,
2013-01-28 13:35:00,58.5,43.8,30.26,WSW,255,6.9,6.9,58,0.00,CLR,,0.00,WeatherDisplay:10.37,2013-01-28 18:35:00,
2013-01-28 13:36:00,58.3,43.6,30.26,WSW,246,6.9,6.9,58,0.00,CLR,,0.00,WeatherDisplay:10.37,2013-01-28 18:36:00,
2013-01-28 13:39:00,57.9,43.2,30.26,WSW,246,10.4,10.4,58,0.00,CLR,,0.00,WeatherDisplay:10.37,2013-01-28 18:39:00,
2013-01-28 13:40:00,57.8,43.1,30.26,SW,231,8.1,8.1,58,0.00,CLR,,0.00,WeatherDisplay:10.37,2013-01-28 18:40:00,
2013-01-28 13:41:00,57.6,43.4,30.26,WSW,256,9.2,9.2,59,0.00,CLR,,0.00,WeatherDisplay:10.37,2013-01-28 18:41:00,
2013-01-28 13:44:00,57.8,44.0,30.25,West,260,5.8,5.8,60,0.00,CLR,,0.00,WeatherDisplay:10.37,2013-01-28 18:44:00,
2013-01-28 13:45:00,57.9,44.5,30.25,WSW,253,3.5,3.5,61,0.00,CLR,,0.00,WeatherDisplay:10.37,2013-01-28 18:45:00,
2013-01-28 13:47:00,58.2,44.4,30.25,WSW,258,5.0,5.0,60,0.00,CLR,,0.00,WeatherDisplay:10.37,2013-01-28 18:47:00,
2013-01-28 13:49:00,58.6,44.3,30.25,SW,236,11.0,11.0,59,0.00,,,0.00,WeatherDisplay:10.37,2013-01-28 18:49:00,
2013-01-28 13:50:00,58.7,44.4,30.25,West,259,11.5,11.5,59,0.00,,,0.00,WeatherDisplay:10.37,2013-01-28 18:50:00,
2013-01-28 13:51:00,58.8,44.0,30.25,WSW,242,10.4,10.4,58,0.00,,,0.00,WeatherDisplay:10.37,2013-01-28 18:51:00,
2013-01-28 13:52:00,59.0,44.7,30.25,SW,234,7.0,7.0,59,0.00,,,0.00,WeatherDisplay:10.37,2013-01-28 18:52:00,
2013-01-28 13:54:00,59.4,44.2,30.25,WSW,256,11.5,11.5,57,0.00,,,0.00,WeatherDisplay:10.37,2013-01-28 18:54:00,
2013-01-28 13:55:00,59.5,44.7,30.25,SW,234,9.2,9.2,58,0.00,,,0.00,WeatherDisplay:10.37,2013-01-28 18:55:00,
2013-01-28 13:56:00,59.6,44.3,30.25,SW,229,8.1,8.1,57,0.00,,,0.00,WeatherDisplay:10.37,2013-01-28 18:56:00,
2013-01-28 13:57:00,59.7,44.4,30.25,West,265,10.4,10.4,57,0.00,,,0.00,WeatherDisplay:10.37,2013-01-28 18:57:00,
2013-01-28 13:59:00,59.8,44.1,30.25,WSW,252,10.4,10.4,56,0.00,,,0.00,WeatherDisplay:10.37,2013-01-28 18:59:00,
2013-01-28 14:01:00,59.9,44.6,30.25,WNW,300,9.2,9.2,57,0.00,,,0.00,WeatherDisplay:10.37,2013-01-28 19:01:00,
2013-01-28 14:02:00,60.1,44.8,30.25,WSW,241,11.5,11.5,57,0.00,,,0.00,WeatherDisplay:10.37,2013-01-28 19:02:00,
2013-01-28 14:05:00,60.4,44.6,30.25,SW,229,8.1,8.1,56,0.00,,,0.00,WeatherDisplay:10.37,2013-01-28 19:05:00,
2013-01-28 14:06:00,60.5,44.2,30.25,WSW,253,8.1,8.1,55,0.00,,,0.00,WeatherDisplay:10.37,2013-01-28 19:06:00,
2013-01-28 14:07:00,60.5,44.7,30.25,West,263,10.4,10.4,56,0.00,,,0.00,WeatherDisplay:10.37,2013-01-28 19:07:00,
2013-01-28 14:10:00,60.8,45.0,30.25,WSW,247,5.8,5.8,56,0.00,,,0.00,WeatherDisplay:10.37,2013-01-28 19:10:00,
2013-01-28 14:11:00,61.1,45.3,30.25,WSW,247,5.8,5.8,56,0.00,,,0.00,WeatherDisplay:10.37,2013-01-28 19:11:00,
2013-01-28 14:12:00,61.1,44.8,30.25,SW,236,10.0,10.0,55,0.00,,,0.00,WeatherDisplay:10.37,2013-01-28 19:12:00,
2013-01-28 14:15:00,61.1,44.3,30.25,West,264,10.4,10.4,54,0.00,,,0.00,WeatherDisplay:10.37,2013-01-28 19:15:00,
2013-01-28 14:16:00,61.0,44.2,30.24,WSW,248,9.2,9.2,54,0.00,,,0.00,WeatherDisplay:10.37,2013-01-28 19:16:00,
2013-01-28 14:17:00,61.0,44.7,30.24,West,262,9.2,9.2,55,0.00,,,0.00,WeatherDisplay:10.37,2013-01-28 19:17:00,
2013-01-28 14:20:00,60.9,44.6,30.24,West,262,11.5,11.5,55,0.00,,,0.00,WeatherDisplay:10.37,2013-01-28 19:20:00,
2013-01-28 14:21:00,60.9,44.6,30.24,SW,236,9.2,9.2,55,0.00,,,0.00,WeatherDisplay:10.37,2013-01-28 19:21:00,
2013-01-28 14:22:00,61.0,44.7,30.24,WSW,246,8.1,8.1,55,0.00,,,0.00,WeatherDisplay:10.37,2013-01-28 19:22:00,
2013-01-28 14:23:00,61.0,44.7,30.24,WSW,243,9.2,9.2,55,0.00,,,0.00,WeatherDisplay:10.37,2013-01-28 19:23:00,
2013-01-28 14:25:00,61.0,44.7,30.24,WSW,253,11.5,11.5,55,0.00,,,0.00,WeatherDisplay:10.37,2013-01-28 19:25:00,
2013-01-28 14:27:00,60.9,44.6,30.24,SW,234,11.5,11.5,55,0.00,,,0.00,WeatherDisplay:10.37,2013-01-28 19:27:00,
2013-01-28 14:28:00,60.9,44.6,30.24,West,261,12.7,12.7,55,0.00,,,0.00,WeatherDisplay:10.37,2013-01-28 19:28:00,
2013-01-28 14:30:00,60.9,45.1,30.24,WSW,247,9.2,9.2,56,0.00,,,0.00,WeatherDisplay:10.37,2013-01-28 19:30:00,
2013-01-28 14:32:00,61.1,45.3,30.24,WSW,255,10.4,10.4,56,0.00,,,0.00,WeatherDisplay:10.37,2013-01-28 19:32:00,
2013-01-28 14:33:00,61.1,44.8,30.24,WSW,257,12.7,12.7,55,0.00,,,0.00,WeatherDisplay:10.37,2013-01-28 19:33:00,
2013-01-28 14:36:00,61.2,45.4,30.24,WNW,286,11.5,11.5,56,0.00,,,0.00,WeatherDisplay:10.37,2013-01-28 19:36:00,
2013-01-28 14:37:00,61.1,44.8,30.24,West,271,11.5,11.5,55,0.00,,,0.00,WeatherDisplay:10.37,2013-01-28 19:37:00,
2013-01-28 14:38:00,61.0,45.2,30.24,WSW,247,11.5,11.5,56,0.00,,,0.00,WeatherDisplay:10.37,2013-01-28 19:38:00,
2013-01-28 14:39:00,61.0,45.2,30.24,West,261,11.5,11.5,56,0.00,,,0.00,WeatherDisplay:10.37,2013-01-28 19:39:00,
2013-01-28 14:41:00,61.1,45.3,30.24,WNW,295,6.9,6.9,56,0.00,,,0.00,WeatherDisplay:10.37,2013-01-28 19:41:00,
2013-01-28 14:42:00,61.2,45.8,30.24,WSW,251,6.9,6.9,57,0.00,,,0.00,WeatherDisplay:10.37,2013-01-28 19:42:00,
2013-01-28 14:44:00,61.3,45.9,30.24,NW,317,9.2,9.2,57,0.00,,,0.00,WeatherDisplay:10.37,2013-01-28 19:44:00,
2013-01-28 14:47:00,61.1,45.3,30.24,WSW,243,10.0,10.0,56,0.00,,,0.00,WeatherDisplay:10.37,2013-01-28 19:47:00,
2013-01-28 14:49:00,60.6,44.8,30.24,WSW,238,11.0,11.0,56,0.00,,,0.00,WeatherDisplay:10.37,2013-01-28 19:49:00,
2013-01-28 14:52:00,59.9,44.6,30.24,WSW,247,12.7,12.7,57,0.00,,,0.00,WeatherDisplay:10.37,2013-01-28 19:52:00,
2013-01-28 14:54:00,59.7,44.9,30.24,West,263,11.5,11.5,58,0.00,,,0.00,WeatherDisplay:10.37,2013-01-28 19:54:00,
2013-01-28 14:57:00,60.0,45.6,30.24,WSW,256,8.1,8.1,59,0.00,,,0.00,WeatherDisplay:10.37,2013-01-28 19:57:00,
2013-01-28 14:58:00,60.0,45.6,30.24,West,260,8.1,8.1,59,0.00,,,0.00,WeatherDisplay:10.37,2013-01-28 19:58:00,
2013-01-28 14:59:00,60.0,45.2,30.24,SW,235,11.5,11.5,58,0.00,,,0.00,WeatherDisplay:10.37,2013-01-28 19:59:00,
2013-01-28 15:00:00,60.0,45.2,30.24,WSW,249,6.0,13.0,58,0.00,,,0.00,WeatherDisplay:10.37,2013-01-28 20:00:00,
2013-01-28 15:03:00,59.7,44.9,30.24,SW,234,12.7,12.7,58,0.00,,,0.00,WeatherDisplay:10.37,2013-01-28 20:03:00,
2013-01-28 15:05:00,59.6,44.8,30.24,WSW,250,5.0,13.0,58,0.00,,,0.00,WeatherDisplay:10.37,2013-01-28 20:05:00,
2013-01-28 15:08:00,59.5,45.2,30.24,West,268,11.5,11.5,59,0.00,,,0.00,WeatherDisplay:10.37,2013-01-28 20:08:00,
2013-01-28 15:10:00,59.6,45.7,30.24,WSW,251,2.0,12.0,60,0.00,,,0.00,WeatherDisplay:10.37,2013-01-28 20:10:00,
2013-01-28 15:13:00,60.4,46.0,30.24,SW,228,12.0,12.0,59,0.00,,,0.00,WeatherDisplay:10.37,2013-01-28 20:13:00,
2013-01-28 15:15:00,60.5,46.1,30.24,WNW,288,10.4,10.4,59,0.00,,,0.00,WeatherDisplay:10.37,2013-01-28 20:15:00,
2013-01-28 15:18:00,60.7,45.8,30.24,WSW,253,9.2,9.2,58,0.00,,,0.00,WeatherDisplay:10.37,2013-01-28 20:18:00,
2013-01-28 15:20:00,60.8,45.9,30.24,NW,312,5.8,5.8,58,0.00,,,0.00,WeatherDisplay:10.37,2013-01-28 20:20:00,
2013-01-28 15:23:00,61.0,45.7,30.24,West,274,11.5,11.5,57,0.00,,,0.00,WeatherDisplay:10.37,2013-01-28 20:23:00,
2013-01-28 15:24:00,61.0,45.7,30.24,WNW,287,10.4,10.4,57,0.00,,,0.00,WeatherDisplay:10.37,2013-01-28 20:24:00,
2013-01-28 15:25:00,61.0,45.7,30.24,WSW,255,8.1,8.1,57,0.00,,,0.00,WeatherDisplay:10.37,2013-01-28 20:25:00,
2013-01-28 15:26:00,61.0,45.7,30.24,SW,233,8.1,8.1,57,0.00,,,0.00,WeatherDisplay:10.37,2013-01-28 20:26:00,
2013-01-28 15:29:00,60.9,46.0,30.24,West,281,11.5,11.5,58,0.00,,,0.00,WeatherDisplay:10.37,2013-01-28 20:29:00,
2013-01-28 15:30:00,60.7,45.4,30.24,West,263,12.7,12.7,57,0.00,,,0.00,WeatherDisplay:10.37,2013-01-28 20:30:00,
2013-01-28 15:31:00,60.7,45.4,30.24,NW,324,12.7,12.7,57,0.00,,,0.00,WeatherDisplay:10.37,2013-01-28 20:31:00,
2013-01-28 15:34:00,60.6,45.7,30.24,SW,224,10.4,10.4,58,0.00,,,0.00,WeatherDisplay:10.37,2013-01-28 20:34:00,
2013-01-28 15:35:00,60.7,45.4,30.24,WSW,248,13.0,13.0,57,0.00,,,0.00,WeatherDisplay:10.37,2013-01-28 20:35:00,
2013-01-28 15:36:00,60.6,45.3,30.24,SW,219,12.7,12.7,57,0.00,,,0.00,WeatherDisplay:10.37,2013-01-28 20:36:00,
2013-01-28 15:39:00,60.0,45.2,30.24,NW,316,11.5,11.5,58,0.00,,,0.00,WeatherDisplay:10.37,2013-01-28 20:39:00,
2013-01-28 15:40:00,59.9,45.1,30.24,WSW,255,10.4,10.4,58,0.00,,,0.00,WeatherDisplay:10.37,2013-01-28 20:40:00,
2013-01-28 15:41:00,59.8,45.4,30.24,West,260,9.2,9.2,59,0.00,,,0.00,WeatherDisplay:10.37,2013-01-28 20:41:00,
2013-01-28 15:44:00,59.7,45.3,30.24,NW,319,11.5,11.5,59,0.00,,,0.00,WeatherDisplay:10.37,2013-01-28 20:44:00,
2013-01-28 15:45:00,59.7,45.3,30.24,WSW,243,7.0,7.0,59,0.00,,,0.00,WeatherDisplay:10.37,2013-01-28 20:45:00,
2013-01-28 15:46:00,59.7,44.9,30.24,West,274,11.5,11.5,58,0.00,,,0.00,WeatherDisplay:10.37,2013-01-28 20:46:00,
2013-01-28 15:49:00,59.3,45.0,30.24,WSW,255,17.3,17.3,59,0.00,,,0.00,WeatherDisplay:10.37,2013-01-28 20:49:00,
2013-01-28 15:50:00,59.3,45.0,30.24,West,260,11.5,11.5,59,0.00,,,0.00,WeatherDisplay:10.37,2013-01-28 20:50:00,
2013-01-28 15:51:00,59.3,45.0,30.24,SW,234,12.7,12.7,59,0.00,,,0.00,WeatherDisplay:10.37,2013-01-28 20:51:00,
2013-01-28 15:52:00,59.3,45.0,30.24,West,262,12.7,12.7,59,0.00,,,0.00,WeatherDisplay:10.37,2013-01-28 20:52:00,
2013-01-28 15:55:00,59.5,45.2,30.24,West,271,12.7,12.7,59,0.00,,,0.00,WeatherDisplay:10.37,2013-01-28 20:55:00,
2013-01-28 15:56:00,59.6,45.2,30.24,SW,231,10.4,10.4,59,0.00,,,0.00,WeatherDisplay:10.37,2013-01-28 20:56:00,
2013-01-28 15:57:00,59.7,45.3,30.24,West,269,8.1,8.1,59,0.00,,,0.00,WeatherDisplay:10.37,2013-01-28 20:57:00,
2013-01-28 16:00:00,59.9,46.0,30.24,WSW,252,6.9,6.9,60,0.00,,,0.00,WeatherDisplay:10.37,2013-01-28 21:00:00,
2013-01-28 16:01:00,60.1,45.7,30.24,WSW,239,11.5,11.5,59,0.00,,,0.00,WeatherDisplay:10.37,2013-01-28 21:01:00,
2013-01-28 16:02:00,60.1,45.7,30.24,SSW,210,11.5,11.5,59,0.00,,,0.00,WeatherDisplay:10.37,2013-01-28 21:02:00,
2013-01-28 16:05:00,60.0,45.6,30.24,NW,324,11.5,11.5,59,0.00,,,0.00,WeatherDisplay:10.37,2013-01-28 21:05:00,
2013-01-28 16:06:00,59.9,45.1,30.24,SW,225,11.5,11.5,58,0.00,,,0.00,WeatherDisplay:10.37,2013-01-28 21:06:00,
2013-01-28 16:07:00,59.9,45.1,30.24,WNW,288,11.5,11.5,58,0.00,,,0.00,WeatherDisplay:10.37,2013-01-28 21:07:00,
2013-01-28 16:10:00,59.8,45.9,30.23,WSW,253,8.1,8.1,60,0.00,,,0.00,WeatherDisplay:10.37,2013-01-28 21:10:00,
2013-01-28 16:12:00,59.6,45.2,30.23,SW,236,6.9,6.9,59,0.00,,,0.00,WeatherDisplay:10.37,2013-01-28 21:12:00,
2013-01-28 16:15:00,59.1,45.7,30.23,NW,317,4.6,4.6,61,0.00,,,0.00,WeatherDisplay:10.37,2013-01-28 21:15:00,
2013-01-28 16:17:00,58.9,45.5,30.23,WSW,250,4.6,4.6,61,0.00,,,0.00,WeatherDisplay:10.37,2013-01-28 21:17:00,
2013-01-28 16:20:00,58.5,45.1,30.23,WSW,241,8.1,8.1,61,0.00,,,0.00,WeatherDisplay:10.37,2013-01-28 21:20:00,
2013-01-28 16:22:00,58.3,45.3,30.24,WSW,249,8.1,8.1,62,0.00,,,0.00,WeatherDisplay:10.37,2013-01-28 21:22:00,
2013-01-28 16:23:00,58.2,45.2,30.24,WSW,250,6.9,6.9,62,0.00,,,0.00,WeatherDisplay:10.37,2013-01-28 21:23:00,
2013-01-28 16:25:00,57.8,45.3,30.24,WSW,251,10.4,10.4,63,0.00,,,0.00,WeatherDisplay:10.37,2013-01-28 21:25:00,
2013-01-28 16:26:00,57.8,45.3,30.24,West,279,6.9,6.9,63,0.00,,,0.00,WeatherDisplay:10.37,2013-01-28 21:26:00,
2013-01-28 16:27:00,57.6,45.1,30.24,West,279,5.8,5.8,63,0.00,,,0.00,WeatherDisplay:10.37,2013-01-28 21:27:00,
2013-01-28 16:28:00,57.4,44.9,30.24,West,272,6.9,6.9,63,0.00,,,0.00,WeatherDisplay:10.37,2013-01-28 21:28:00,
2013-01-28 16:31:00,57.2,45.1,30.24,WSW,256,5.8,5.8,64,0.00,,,0.00,WeatherDisplay:10.37,2013-01-28 21:31:00,
2013-01-28 16:32:00,57.2,45.1,30.24,WSW,251,5.8,5.8,64,0.00,,,0.00,WeatherDisplay:10.37,2013-01-28 21:32:00,
2013-01-28 16:33:00,57.1,45.4,30.24,WSW,255,8.1,8.1,65,0.00,,,0.00,WeatherDisplay:10.37,2013-01-28 21:33:00,
2013-01-28 16:36:00,56.9,45.3,30.24,WSW,238,8.1,8.1,65,0.00,,,0.00,WeatherDisplay:10.37,2013-01-28 21:36:00,
2013-01-28 16:37:00,56.9,45.3,30.24,SW,236,8.1,8.1,65,0.00,,,0.00,WeatherDisplay:10.37,2013-01-28 21:37:00,
2013-01-28 16:38:00,56.8,45.2,30.24,WSW,250,4.6,4.6,65,0.00,,,0.00,WeatherDisplay:10.37,2013-01-28 21:38:00,
2013-01-28 16:41:00,56.6,45.0,30.24,WSW,249,5.0,5.0,65,0.00,,,0.00,WeatherDisplay:10.37,2013-01-28 21:41:00,
2013-01-28 16:42:00,56.6,45.0,30.24,West,267,6.0,6.0,65,0.00,,,0.00,WeatherDisplay:10.37,2013-01-28 21:42:00,
2013-01-28 16:43:00,56.5,45.3,30.24,SW,236,5.8,5.8,66,0.00,,,0.00,WeatherDisplay:10.37,2013-01-28 21:43:00,
2013-01-28 16:44:00,56.5,45.3,30.24,WSW,258,5.8,5.8,66,0.00,,,0.00,WeatherDisplay:10.37,2013-01-28 21:44:00,
2013-01-28 16:46:00,56.3,45.1,30.24,SW,233,5.8,5.8,66,0.00,,,0.00,WeatherDisplay:10.37,2013-01-28 21:46:00,
2013-01-28 16:47:00,56.3,45.1,30.24,West,272,7.0,7.0,66,0.00,,,0.00,WeatherDisplay:10.37,2013-01-28 21:47:00,
2013-01-28 16:48:00,56.2,45.0,30.24,WSW,246,9.2,9.2,66,0.00,,,0.00,WeatherDisplay:10.37,2013-01-28 21:48:00,
2013-01-28 16:49:00,56.2,45.0,30.24,SW,234,8.1,8.1,66,0.00,,,0.00,WeatherDisplay:10.37,2013-01-28 21:49:00,
2013-01-28 16:52:00,56.1,44.9,30.24,WSW,253,4.6,4.6,66,0.00,,,0.00,WeatherDisplay:10.37,2013-01-28 21:52:00,
2013-01-28 16:53:00,56.1,44.9,30.24,SW,234,3.5,3.5,66,0.00,,,0.00,WeatherDisplay:10.37,2013-01-28 21:53:00,
2013-01-28 16:54:00,56.0,44.8,30.24,WNW,291,3.5,3.5,66,0.00,,,0.00,WeatherDisplay:10.37,2013-01-28 21:54:00,
2013-01-28 16:57:00,55.9,45.1,30.24,West,260,4.0,4.0,67,0.00,,,0.00,WeatherDisplay:10.37,2013-01-28 21:57:00,
2013-01-28 16:58:00,55.9,45.1,30.24,WNW,299,5.8,5.8,67,0.00,,,0.00,WeatherDisplay:10.37,2013-01-28 21:58:00,
2013-01-28 16:59:00,55.9,45.1,30.24,West,263,4.6,4.6,67,0.00,,,0.00,WeatherDisplay:10.37,2013-01-28 21:59:00,
2013-01-28 17:03:00,55.8,45.0,30.24,West,259,3.5,3.5,67,0.00,,,0.00,WeatherDisplay:10.37,2013-01-28 22:03:00,
2013-01-28 17:04:00,55.8,45.0,30.24,WSW,239,3.5,3.5,67,0.00,,,0.00,WeatherDisplay:10.37,2013-01-28 22:04:00,
2013-01-28 17:08:00,55.6,45.2,30.24,WSW,238,3.5,3.5,68,0.00,,,0.00,WeatherDisplay:10.37,2013-01-28 22:08:00,
2013-01-28 17:09:00,55.6,45.2,30.24,WSW,252,3.5,3.5,68,0.00,,,0.00,WeatherDisplay:10.37,2013-01-28 22:09:00,
2013-01-28 17:13:00,55.4,45.0,30.24,WNW,289,3.5,3.5,68,0.00,,,0.00,WeatherDisplay:10.37,2013-01-28 22:13:00,
2013-01-28 17:14:00,55.4,45.0,30.24,WSW,258,3.5,3.5,68,0.00,,,0.00,WeatherDisplay:10.37,2013-01-28 22:14:00,
2013-01-28 17:18:00,55.2,45.2,30.24,WSW,241,3.5,3.5,69,0.00,,,0.00,WeatherDisplay:10.37,2013-01-28 22:18:00,
2013-01-28 17:19:00,55.2,45.2,30.24,West,261,3.5,3.5,69,0.00,,,0.00,WeatherDisplay:10.37,2013-01-28 22:19:00,
2013-01-28 17:20:00,55.2,45.2,30.24,WSW,250,2.3,2.3,69,0.00,,,0.00,WeatherDisplay:10.37,2013-01-28 22:20:00,
2013-01-28 17:23:00,55.1,45.1,30.24,West,264,3.5,3.5,69,0.00,,,0.00,WeatherDisplay:10.37,2013-01-28 22:23:00,
2013-01-28 17:25:00,55.0,45.0,30.24,WSW,251,3.5,3.5,69,0.00,,,0.00,WeatherDisplay:10.37,2013-01-28 22:25:00,
2013-01-28 17:28:00,54.9,45.3,30.24,West,264,3.5,3.5,70,0.00,,,0.00,WeatherDisplay:10.37,2013-01-28 22:28:00,
2013-01-28 17:30:00,54.8,45.2,30.24,WSW,258,3.5,3.5,70,0.00,,,0.00,WeatherDisplay:10.37,2013-01-28 22:30:00,
2013-01-28 17:34:00,54.7,45.5,30.24,West,264,4.6,4.6,71,0.00,,,0.00,WeatherDisplay:10.37,2013-01-28 22:34:00,
2013-01-28 17:35:00,54.7,45.5,30.24,WSW,255,3.5,3.5,71,0.00,,,0.00,WeatherDisplay:10.37,2013-01-28 22:35:00,
2013-01-28 17:39:00,54.5,45.3,30.25,WSW,253,5.8,5.8,71,0.00,,,0.00,WeatherDisplay:10.37,2013-01-28 22:39:00,
2013-01-28 17:40:00,54.5,45.3,30.25,WNW,293,4.6,4.6,71,0.00,,,0.00,WeatherDisplay:10.37,2013-01-28 22:40:00,
2013-01-28 17:41:00,54.4,45.2,30.25,WSW,254,3.5,3.5,71,0.00,,,0.00,WeatherDisplay:10.37,2013-01-28 22:41:00,
2013-01-28 17:45:00,54.3,45.5,30.25,West,266,1.0,5.0,72,0.00,,,0.00,WeatherDisplay:10.37,2013-01-28 22:45:00,
2013-01-28 17:46:00,54.2,45.4,30.24,West,261,3.5,3.5,72,0.00,,,0.00,WeatherDisplay:10.37,2013-01-28 22:46:00,
2013-01-28 17:50:00,54.1,45.3,30.24,West,262,3.5,3.5,72,0.00,,,0.00,WeatherDisplay:10.37,2013-01-28 22:50:00,
2013-01-28 17:51:00,54.1,45.3,30.24,WSW,249,3.5,3.5,72,0.00,,,0.00,WeatherDisplay:10.37,2013-01-28 22:51:00,
2013-01-28 17:52:00,54.0,45.2,30.24,WSW,257,3.5,3.5,72,0.00,,,0.00,WeatherDisplay:10.37,2013-01-28 22:52:00,
2013-01-28 17:56:00,53.8,45.3,30.25,WSW,244,2.3,2.3,73,0.00,,,0.00,WeatherDisplay:10.37,2013-01-28 22:56:00,
2013-01-28 17:58:00,53.7,45.2,30.25,West,266,2.3,2.3,73,0.00,,,0.00,WeatherDisplay:10.37,2013-01-28 22:58:00,
2013-01-28 18:01:00,53.5,45.4,30.25,West,264,2.3,2.3,74,0.00,,,0.00,WeatherDisplay:10.37,2013-01-28 23:01:00,
2013-01-28 18:03:00,53.5,45.4,30.25,WNW,289,2.3,2.3,74,0.00,,,0.00,WeatherDisplay:10.37,2013-01-28 23:03:00,
2013-01-28 18:06:00,53.4,45.3,30.25,West,278,1.1,0.0,74,0.00,,,0.00,WeatherDisplay:10.37,2013-01-28 23:06:00,
2013-01-28 18:08:00,53.3,45.2,30.25,West,262,2.0,2.0,74,0.00,,,0.00,WeatherDisplay:10.37,2013-01-28 23:08:00,
2013-01-28 18:11:00,53.2,45.1,30.25,West,262,0.0,0.0,74,0.00,,,0.00,WeatherDisplay:10.37,2013-01-28 23:11:00,
2013-01-28 18:13:00,53.1,45.4,30.25,West,274,1.1,1.1,75,0.00,,,0.00,WeatherDisplay:10.37,2013-01-28 23:13:00,
2013-01-28 18:16:00,53.0,45.3,30.25,WSW,258,1.1,1.1,75,0.00,,,0.00,WeatherDisplay:10.37,2013-01-28 23:16:00,
2013-01-28 18:17:00,53.0,45.3,30.25,WSW,258,1.1,0.0,75,0.00,,,0.00,WeatherDisplay:10.37,2013-01-28 23:17:00,
2013-01-28 18:18:00,53.0,44.9,30.25,WSW,258,0.0,0.0,74,0.00,,,0.00,WeatherDisplay:10.37,2013-01-28 23:18:00,
2013-01-28 18:21:00,53.0,45.3,30.25,West,277,5.8,5.8,75,0.00,,,0.00,WeatherDisplay:10.37,2013-01-28 23:21:00,
2013-01-28 18:22:00,53.0,45.3,30.25,West,277,2.3,2.3,75,0.00,,,0.00,WeatherDisplay:10.37,2013-01-28 23:22:00,
2013-01-28 18:24:00,53.0,45.3,30.25,West,281,1.1,1.1,75,0.00,,,0.00,WeatherDisplay:10.37,2013-01-28 23:24:00,
2013-01-28 18:26:00,52.9,45.2,30.25,West,279,0.0,0.1,75,0.00,,,0.00,WeatherDisplay:10.37,2013-01-28 23:26:00,
2013-01-28 18:27:00,52.9,45.2,30.25,West,279,1.1,1.1,75,0.00,,,0.00,WeatherDisplay:10.37,2013-01-28 23:27:00,
2013-01-28 18:29:00,52.9,45.2,30.25,West,267,1.1,1.1,75,0.00,,,0.00,WeatherDisplay:10.37,2013-01-28 23:29:00,
2013-01-28 18:31:00,52.7,45.0,30.25,West,260,2.3,2.3,75,0.00,,,0.00,WeatherDisplay:10.37,2013-01-28 23:31:00,
2013-01-28 18:32:00,52.7,45.0,30.25,West,260,1.1,0.0,75,0.00,,,0.00,WeatherDisplay:10.37,2013-01-28 23:32:00,
2013-01-28 18:34:00,52.5,44.8,30.25,West,260,0.0,0.0,75,0.00,,,0.00,WeatherDisplay:10.37,2013-01-28 23:34:00,
2013-01-28 18:37:00,52.4,44.7,30.25,WSW,253,2.3,2.3,75,0.00,,,0.00,WeatherDisplay:10.37,2013-01-28 23:37:00,
2013-01-28 18:40:00,52.2,44.5,30.25,WSW,256,0.0,2.0,75,0.00,,,0.00,WeatherDisplay:10.37,2013-01-28 23:40:00,
2013-01-28 18:42:00,52.0,44.3,30.25,WSW,253,0.0,0.0,75,0.00,,,0.00,WeatherDisplay:10.37,2013-01-28 23:42:00,
2013-01-28 18:43:00,51.9,44.6,30.25,WSW,253,0.0,0.0,76,0.00,,,0.00,WeatherDisplay:10.37,2013-01-28 23:43:00,
2013-01-28 18:45:00,51.8,44.5,30.26,WSW,253,0.0,1.0,76,0.00,,,0.00,WeatherDisplay:10.37,2013-01-28 23:45:00,
2013-01-28 18:47:00,51.6,44.3,30.26,WSW,253,1.1,0.0,76,0.00,,,0.00,WeatherDisplay:10.37,2013-01-28 23:47:00,
2013-01-28 18:48:00,51.6,44.3,30.26,WSW,253,0.0,0.0,76,0.00,,,0.00,WeatherDisplay:10.37,2013-01-28 23:48:00,
2013-01-28 18:50:00,51.4,44.4,30.26,West,261,0.0,0.1,77,0.00,,,0.00,WeatherDisplay:10.37,2013-01-28 23:50:00,
2013-01-28 18:52:00,51.4,44.4,30.26,West,260,1.1,1.1,77,0.00,,,0.00,WeatherDisplay:10.37,2013-01-28 23:52:00,
2013-01-28 18:53:00,51.4,44.4,30.26,WSW,245,1.1,2.0,77,0.00,,,0.00,WeatherDisplay:10.37,2013-01-28 23:53:00,
2013-01-28 18:55:00,51.6,44.6,30.26,SW,234,2.3,2.3,77,0.00,,,0.00,WeatherDisplay:10.37,2013-01-28 23:55:00,
2013-01-28 18:57:00,51.8,44.8,30.26,WSW,257,2.3,2.3,77,0.00,,,0.00,WeatherDisplay:10.37,2013-01-28 23:57:00,
2013-01-28 18:58:00,51.8,44.8,30.26,WSW,255,1.1,1.1,77,0.00,,,0.00,WeatherDisplay:10.37,2013-01-28 23:58:00,
2013-01-28 19:00:00,51.9,44.9,30.26,WSW,244,3.5,3.5,77,0.00,,,0.00,WeatherDisplay:10.37,2013-01-29 00:00:00,
2013-01-28 19:02:00,52.1,45.1,30.26,WNW,284,6.9,6.9,77,0.00,,,0.00,WeatherDisplay:10.37,2013-01-29 00:02:00,
2013-01-28 19:03:00,52.2,45.2,30.26,West,273,3.5,3.5,77,0.00,,,0.00,WeatherDisplay:10.37,2013-01-29 00:03:00,
2013-01-28 19:05:00,52.3,45.3,30.26,West,269,4.6,4.6,77,0.00,,,0.00,WeatherDisplay:10.37,2013-01-29 00:05:00,
2013-01-28 19:07:00,52.4,45.1,30.26,WSW,250,2.3,2.3,76,0.00,,,0.00,WeatherDisplay:10.37,2013-01-29 00:07:00,
2013-01-28 19:09:00,52.4,45.1,30.26,WSW,251,0.0,0.0,76,0.00,,,0.00,WeatherDisplay:10.37,2013-01-29 00:09:00,
2013-01-28 19:10:00,52.4,45.1,30.26,WSW,252,0.0,0.0,76,0.00,,,0.00,WeatherDisplay:10.37,2013-01-29 00:10:00,
2013-01-28 19:13:00,52.2,44.9,30.26,West,272,2.3,2.3,76,0.00,,,0.00,WeatherDisplay:10.37,2013-01-29 00:13:00,
2013-01-28 19:15:00,52.1,44.8,30.26,West,272,1.1,1.1,76,0.00,,,0.00,WeatherDisplay:10.37,2013-01-29 00:15:00,
2013-01-28 19:16:00,52.1,45.1,30.26,West,272,1.1,1.1,77,0.00,,,0.00,WeatherDisplay:10.37,2013-01-29 00:16:00,
2013-01-28 19:18:00,52.0,45.0,30.26,West,271,0.0,0.2,77,0.00,,,0.00,WeatherDisplay:10.37,2013-01-29 00:18:00,
2013-01-28 19:20:00,51.9,44.9,30.26,WSW,255,1.1,1.1,77,0.00,,,0.00,WeatherDisplay:10.37,2013-01-29 00:20:00,
2013-01-28 19:21:00,51.9,44.9,30.26,West,268,4.0,4.0,77,0.00,,,0.00,WeatherDisplay:10.37,2013-01-29 00:21:00,
2013-01-28 19:22:00,52.0,45.0,30.26,West,264,4.6,4.6,77,0.00,,,0.00,WeatherDisplay:10.37,2013-01-29 00:22:00,
2013-01-28 19:23:00,52.0,45.0,30.26,West,260,3.5,3.5,77,0.00,,,0.00,WeatherDisplay:10.37,2013-01-29 00:23:00,
2013-01-28 19:25:00,52.0,45.0,30.26,West,267,1.1,1.1,77,0.00,,,0.00,WeatherDisplay:10.37,2013-01-29 00:25:00,
2013-01-28 19:26:00,52.0,45.0,30.26,WSW,239,1.1,1.2,77,0.00,,,0.00,WeatherDisplay:10.37,2013-01-29 00:26:00,
2013-01-28 19:27:00,52.0,45.0,30.26,WSW,246,3.5,3.5,77,0.00,,,0.00,WeatherDisplay:10.37,2013-01-29 00:27:00,
2013-01-28 19:28:00,52.0,45.0,30.26,WSW,253,3.5,3.5,77,0.00,,,0.00,WeatherDisplay:10.37,2013-01-29 00:28:00,
2013-01-28 19:31:00,52.1,45.4,30.26,WSW,257,8.1,8.1,78,0.00,,,0.00,WeatherDisplay:10.37,2013-01-29 00:31:00,
2013-01-28 19:32:00,52.2,45.5,30.26,WSW,253,8.1,8.1,78,0.00,,,0.00,WeatherDisplay:10.37,2013-01-29 00:32:00,
2013-01-28 19:33:00,52.3,45.6,30.26,West,271,3.5,3.5,78,0.00,,,0.00,WeatherDisplay:10.37,2013-01-29 00:33:00,
2013-01-28 19:36:00,52.4,45.4,30.26,West,267,8.1,8.1,77,0.00,,,0.00,WeatherDisplay:10.37,2013-01-29 00:36:00,
2013-01-28 19:37:00,52.3,45.6,30.26,WSW,250,8.1,8.1,78,0.00,,,0.00,WeatherDisplay:10.37,2013-01-29 00:37:00,
2013-01-28 19:38:00,52.4,45.7,30.26,SW,215,6.0,6.0,78,0.00,,,0.00,WeatherDisplay:10.37,2013-01-29 00:38:00,
2013-01-28 19:41:00,52.5,45.8,30.26,West,259,6.0,6.0,78,0.00,,,0.00,WeatherDisplay:10.37,2013-01-29 00:41:00,
2013-01-28 19:42:00,52.5,45.8,30.27,West,268,5.8,5.8,78,0.00,,,0.00,WeatherDisplay:10.37,2013-01-29 00:42:00,
2013-01-28 19:44:00,52.6,45.9,30.27,West,264,6.9,6.9,78,0.00,,,0.00,WeatherDisplay:10.37,2013-01-29 00:44:00,
2013-01-28 19:46:00,52.6,45.9,30.27,WSW,243,7.0,7.0,78,0.00,,,0.00,WeatherDisplay:10.37,2013-01-29 00:46:00,
2013-01-28 19:47:00,52.6,45.9,30.27,WSW,239,6.9,6.9,78,0.00,,,0.00,WeatherDisplay:10.37,2013-01-29 00:47:00,
2013-01-28 19:48:00,52.6,45.9,30.27,West,276,3.5,3.5,78,0.00,,,0.00,WeatherDisplay:10.37,2013-01-29 00:48:00,
2013-01-28 19:50:00,52.6,45.9,30.27,WSW,255,4.6,4.6,78,0.00,,,0.00,WeatherDisplay:10.37,2013-01-29 00:50:00,
2013-01-28 19:52:00,52.6,45.9,30.27,WSW,238,6.9,6.9,78,0.00,,,0.00,WeatherDisplay:10.37,2013-01-29 00:52:00,
2013-01-28 19:53:00,52.5,45.8,30.27,WSW,239,4.6,4.6,78,0.00,,,0.00,WeatherDisplay:10.37,2013-01-29 00:53:00,
2013-01-28 19:55:00,52.5,45.8,30.27,WSW,238,6.9,6.9,78,0.00,,,0.00,WeatherDisplay:10.37,2013-01-29 00:55:00,
2013-01-28 19:57:00,52.5,45.8,30.27,WSW,246,8.1,8.1,78,0.00,,,0.00,WeatherDisplay:10.37,2013-01-29 00:57:00,
2013-01-28 19:58:00,52.5,45.8,30.27,WSW,253,6.9,6.9,78,0.00,,,0.00,WeatherDisplay:10.37,2013-01-29 00:58:00,
2013-01-28 20:00:00,52.5,46.2,30.27,West,265,6.9,6.9,79,0.00,,,0.00,WeatherDisplay:10.37,2013-01-29 01:00:00,
2013-01-28 20:02:00,52.4,46.1,30.27,WSW,248,6.9,6.9,79,0.00,,,0.00,WeatherDisplay:10.37,2013-01-29 01:02:00,
2013-01-28 20:03:00,52.4,46.1,30.27,West,260,5.8,5.8,79,0.00,,,0.00,WeatherDisplay:10.37,2013-01-29 01:03:00,
2013-01-28 20:04:00,52.4,46.1,30.27,SW,229,5.8,5.8,79,0.00,,,0.00,WeatherDisplay:10.37,2013-01-29 01:04:00,
2013-01-28 20:06:00,52.4,46.1,30.27,WSW,255,4.6,4.6,79,0.00,,,0.00,WeatherDisplay:10.37,2013-01-29 01:06:00,
2013-01-28 20:07:00,52.3,46.3,30.27,WNW,291,5.8,5.8,80,0.00,,,0.00,WeatherDisplay:10.37,2013-01-29 01:07:00,
2013-01-28 20:09:00,52.3,46.3,30.27,WSW,257,9.0,9.0,80,0.00,,,0.00,WeatherDisplay:10.37,2013-01-29 01:09:00,
2013-01-28 20:11:00,52.2,46.5,30.27,WSW,248,10.4,10.4,81,0.00,,,0.00,WeatherDisplay:10.37,2013-01-29 01:11:00,
2013-01-28 20:13:00,52.2,46.5,30.27,WSW,243,5.8,5.8,81,0.00,,,0.00,WeatherDisplay:10.37,2013-01-29 01:13:00,
2013-01-28 20:14:00,52.1,46.4,30.27,WSW,246,5.0,5.0,81,0.00,,,0.00,WeatherDisplay:10.37,2013-01-29 01:14:00,
2013-01-28 20:16:00,52.0,46.3,30.27,WSW,239,9.2,9.2,81,0.00,,,0.00,WeatherDisplay:10.37,2013-01-29 01:16:00,
2013-01-28 20:18:00,51.9,46.6,30.27,WSW,245,8.1,8.1,82,0.00,,,0.00,WeatherDisplay:10.37,2013-01-29 01:18:00,
2013-01-28 20:19:00,51.8,46.5,30.27,WSW,256,9.2,9.2,82,0.00,,,0.00,WeatherDisplay:10.37,2013-01-29 01:19:00,
2013-01-28 20:20:00,51.8,46.5,30.27,West,261,5.8,5.8,82,0.00,,,0.00,WeatherDisplay:10.37,2013-01-29 01:20:00,
2013-01-28 20:22:00,51.7,46.4,30.27,SW,234,9.2,9.2,82,0.00,,,0.00,WeatherDisplay:10.37,2013-01-29 01:22:00,
2013-01-28 20:23:00,51.7,46.4,30.27,WSW,250,8.1,8.1,82,0.00,,,0.00,WeatherDisplay:10.37,2013-01-29 01:23:00,
2013-01-28 20:24:00,51.6,46.3,30.27,West,267,7.0,7.0,82,0.00,,,0.00,WeatherDisplay:10.37,2013-01-29 01:24:00,
2013-01-28 20:25:00,51.6,46.6,30.27,WSW,255,8.0,8.0,83,0.00,,,0.00,WeatherDisplay:10.37,2013-01-29 01:25:00,
2013-01-28 20:27:00,51.5,46.5,30.27,WSW,253,6.9,6.9,83,0.00,,,0.00,WeatherDisplay:10.37,2013-01-29 01:27:00,
2013-01-28 20:28:00,51.5,46.5,30.27,WSW,241,4.6,4.6,83,0.00,,,0.00,WeatherDisplay:10.37,2013-01-29 01:28:00,
2013-01-28 20:29:00,51.4,46.7,30.27,WSW,248,3.5,3.5,84,0.00,,,0.00,WeatherDisplay:10.37,2013-01-29 01:29:00,
2013-01-28 20:30:00,51.3,46.6,30.27,WSW,250,3.5,3.5,84,0.00,,,0.00,WeatherDisplay:10.37,2013-01-29 01:30:00,
2013-01-28 20:32:00,51.2,46.5,30.27,WSW,251,5.8,5.8,84,0.00,,,0.00,WeatherDisplay:10.37,2013-01-29 01:32:00,
2013-01-28 20:33:00,51.1,46.4,30.27,West,262,4.6,4.6,84,0.00,,,0.00,WeatherDisplay:10.37,2013-01-29 01:33:00,
2013-01-28 20:35:00,51.0,46.3,30.27,West,264,3.5,3.5,84,0.00,,,0.00,WeatherDisplay:10.37,2013-01-29 01:35:00,
2013-01-28 20:36:00,51.0,46.6,30.27,WSW,241,5.0,5.0,85,0.00,,,0.00,WeatherDisplay:10.37,2013-01-29 01:36:00,
2013-01-28 20:37:00,50.9,46.2,30.27,West,276,4.6,4.6,84,0.00,,,0.00,WeatherDisplay:10.37,2013-01-29 01:37:00,
2013-01-28 20:38:00,50.9,46.2,30.26,West,276,3.5,3.5,84,0.00,,,0.00,WeatherDisplay:10.37,2013-01-29 01:38:00,
2013-01-28 20:40:00,50.9,46.2,30.26,West,275,1.1,1.1,84,0.00,,,0.00,WeatherDisplay:10.37,2013-01-29 01:40:00,
2013-01-28 20:42:00,50.8,46.5,30.26,West,267,1.1,1.1,85,0.00,,,0.00,WeatherDisplay:10.37,2013-01-29 01:42:00,
2013-01-28 20:43:00,50.7,46.4,30.26,West,272,1.1,1.1,85,0.00,,,0.00,WeatherDisplay:10.37,2013-01-29 01:43:00,
2013-01-28 20:45:00,50.6,46.3,30.26,West,274,4.6,4.6,85,0.00,,,0.00,WeatherDisplay:10.37,2013-01-29 01:45:00,
2013-01-28 20:47:00,50.6,46.3,30.26,West,271,1.1,0.0,85,0.00,,,0.00,WeatherDisplay:10.37,2013-01-29 01:47:00,
2013-01-28 20:48:00,50.6,46.3,30.26,WNW,284,0.0,1.0,85,0.00,,,0.00,WeatherDisplay:10.37,2013-01-29 01:48:00,
2013-01-28 20:50:00,50.5,46.5,30.26,WNW,285,1.1,1.1,86,0.00,,,0.00,WeatherDisplay:10.37,2013-01-29 01:50:00,
2013-01-28 20:52:00,50.4,46.4,30.26,WSW,256,2.3,2.3,86,0.00,,,0.00,WeatherDisplay:10.37,2013-01-29 01:52:00,
2013-01-28 20:54:00,50.4,46.4,30.26,WSW,257,0.0,0.0,86,0.00,,,0.00,WeatherDisplay:10.37,2013-01-29 01:54:00,
2013-01-28 20:55:00,50.4,46.4,30.26,WSW,257,0.0,0.0,86,0.00,,,0.00,WeatherDisplay:10.37,2013-01-29 01:55:00,
2013-01-28 20:57:00,50.3,46.3,30.26,WNW,289,1.0,1.0,86,0.00,,,0.00,WeatherDisplay:10.37,2013-01-29 01:57:00,
2013-01-28 20:58:00,50.3,46.3,30.26,WNW,289,2.3,2.3,86,0.00,,,0.00,WeatherDisplay:10.37,2013-01-29 01:58:00,
2013-01-28 20:59:00,50.3,46.3,30.26,WNW,290,2.3,2.3,86,0.00,,,0.00,WeatherDisplay:10.37,2013-01-29 01:59:00,
2013-01-28 21:00:00,50.3,46.3,30.26,WNW,289,1.1,1.1,86,0.00,,,0.00,WeatherDisplay:10.37,2013-01-29 02:00:00,
2013-01-28 21:02:00,50.2,46.2,30.26,WNW,289,0.0,0.0,86,0.00,,,0.00,WeatherDisplay:10.37,2013-01-29 02:02:00,
2013-01-28 21:03:00,50.2,46.2,30.26,West,281,1.1,1.1,86,0.00,,,0.00,WeatherDisplay:10.37,2013-01-29 02:03:00,
2013-01-28 21:04:00,50.1,45.8,30.26,SW,218,2.3,2.3,85,0.00,,,0.00,WeatherDisplay:10.37,2013-01-29 02:04:00,
2013-01-28 21:05:00,50.0,45.7,30.26,SW,217,2.3,2.3,85,0.00,,,0.00,WeatherDisplay:10.37,2013-01-29 02:05:00,
2013-01-28 21:08:00,49.9,45.9,30.26,West,262,2.3,2.3,86,0.00,,,0.00,WeatherDisplay:10.37,2013-01-29 02:08:00,
2013-01-28 21:09:00,49.9,45.9,30.26,West,262,1.1,0.0,86,0.00,,,0.00,WeatherDisplay:10.37,2013-01-29 02:09:00,
2013-01-28 21:11:00,50.0,46.3,30.26,West,259,2.3,2.3,87,0.00,,,0.00,WeatherDisplay:10.37,2013-01-29 02:11:00,
2013-01-28 21:13:00,50.1,46.4,30.26,West,281,2.3,2.3,87,0.00,,,0.00,WeatherDisplay:10.37,2013-01-29 02:13:00,
2013-01-28 21:14:00,50.1,46.1,30.26,West,267,2.3,2.3,86,0.00,,,0.00,WeatherDisplay:10.37,2013-01-29 02:14:00,
2013-01-28 21:17:00,50.1,46.1,30.26,NW,307,2.0,2.0,86,0.00,,,0.00,WeatherDisplay:10.37,2013-01-29 02:17:00,
2013-01-28 21:18:00,50.1,46.1,30.26,NW,306,2.3,2.3,86,0.00,,,0.00,WeatherDisplay:10.37,2013-01-29 02:18:00,
2013-01-28 21:19:00,50.1,46.1,30.26,West,259,3.5,3.5,86,0.00,,,0.00,WeatherDisplay:10.37,2013-01-29 02:19:00,
2013-01-28 21:22:00,50.1,46.1,30.26,West,262,3.5,3.5,86,0.00,,,0.00,WeatherDisplay:10.37,2013-01-29 02:22:00,
2013-01-28 21:24:00,50.2,46.2,30.26,West,260,1.1,1.1,86,0.00,,,0.00,WeatherDisplay:10.37,2013-01-29 02:24:00,
2013-01-28 21:25:00,50.2,46.2,30.26,WNW,299,2.0,2.0,86,0.00,,,0.00,WeatherDisplay:10.37,2013-01-29 02:25:00,
2013-01-28 21:27:00,50.1,46.1,30.26,WSW,256,2.0,2.0,86,0.00,,,0.00,WeatherDisplay:10.37,2013-01-29 02:27:00,
2013-01-28 21:29:00,50.1,46.4,30.26,WSW,248,1.1,1.1,87,0.00,,,0.00,WeatherDisplay:10.37,2013-01-29 02:29:00,
2013-01-28 21:30:00,50.1,46.4,30.26,WSW,255,1.1,1.1,87,0.00,,,0.00,WeatherDisplay:10.37,2013-01-29 02:30:00,
2013-01-28 21:33:00,50.1,46.4,30.26,WNW,283,1.1,1.1,87,0.00,,,0.00,WeatherDisplay:10.37,2013-01-29 02:33:00,
2013-01-28 21:34:00,50.1,46.4,30.26,WNW,284,0.0,0.0,87,0.00,,,0.00,WeatherDisplay:10.37,2013-01-29 02:34:00,
2013-01-28 21:35:00,50.0,46.3,30.26,WNW,283,0.0,0.0,87,0.00,,,0.00,WeatherDisplay:10.37,2013-01-29 02:35:00,
2013-01-28 21:38:00,50.0,46.3,30.26,West,264,2.0,2.0,87,0.00,,,0.00,WeatherDisplay:10.37,2013-01-29 02:38:00,
2013-01-28 21:39:00,50.0,46.3,30.26,West,262,2.3,2.3,87,0.00,,,0.00,WeatherDisplay:10.37,2013-01-29 02:39:00,
2013-01-28 21:40:00,50.0,46.3,30.26,West,266,1.1,1.1,87,0.00,,,0.00,WeatherDisplay:10.37,2013-01-29 02:40:00,
2013-01-28 21:43:00,49.9,46.2,30.26,West,265,0.0,0.0,87,0.00,,,0.00,WeatherDisplay:10.37,2013-01-29 02:43:00,
2013-01-28 21:45:00,50.0,46.6,30.26,West,276,1.1,1.1,88,0.00,,,0.00,WeatherDisplay:10.37,2013-01-29 02:45:00,
2013-01-28 21:46:00,49.9,46.5,30.26,West,276,1.1,1.1,88,0.00,,,0.00,WeatherDisplay:10.37,2013-01-29 02:46:00,
2013-01-28 21:48:00,49.9,46.5,30.26,West,275,1.1,1.1,88,0.00,,,0.00,WeatherDisplay:10.37,2013-01-29 02:48:00,
2013-01-28 21:51:00,49.8,46.4,30.27,West,275,1.1,0.0,88,0.00,,,0.00,WeatherDisplay:10.37,2013-01-29 02:51:00,
2013-01-28 21:53:00,49.7,46.3,30.26,West,269,1.1,0.0,88,0.00,,,0.00,WeatherDisplay:10.37,2013-01-29 02:53:00,
2013-01-28 21:56:00,49.6,46.2,30.26,West,269,0.0,0.0,88,0.00,,,0.00,WeatherDisplay:10.37,2013-01-29 02:56:00,
2013-01-28 21:57:00,49.5,46.1,30.26,West,269,0.0,0.0,88,0.00,,,0.00,WeatherDisplay:10.37,2013-01-29 02:57:00,
2013-01-28 21:58:00,49.5,46.1,30.26,West,269,0.0,0.0,88,0.00,,,0.00,WeatherDisplay:10.37,2013-01-29 02:58:00,
2013-01-28 22:01:00,49.3,45.9,30.26,West,269,0.0,0.0,88,0.00,,,0.00,WeatherDisplay:10.37,2013-01-29 03:01:00,
2013-01-28 22:02:00,49.3,45.9,30.26,West,269,0.0,0.0,88,0.00,,,0.00,WeatherDisplay:10.37,2013-01-29 03:02:00,
2013-01-28 22:04:00,49.1,45.7,30.26,West,268,0.0,0.0,88,0.00,,,0.00,WeatherDisplay:10.37,2013-01-29 03:04:00,
2013-01-28 22:06:00,48.9,45.8,30.26,West,269,0.0,0.0,89,0.00,,,0.00,WeatherDisplay:10.37,2013-01-29 03:06:00,
2013-01-28 22:07:00,48.8,45.7,30.26,West,269,0.0,0.0,89,0.00,,,0.00,WeatherDisplay:10.37,2013-01-29 03:07:00,
2013-01-28 22:08:00,48.8,45.7,30.26,West,268,0.0,0.0,89,0.00,,,0.00,WeatherDisplay:10.37,2013-01-29 03:08:00,
2013-01-28 22:09:00,48.8,45.7,30.26,West,269,0.0,0.0,89,0.00,,,0.00,WeatherDisplay:10.37,2013-01-29 03:09:00,
2013-01-28 22:12:00,48.5,45.4,30.26,West,269,0.0,0.0,89,0.00,,,0.00,WeatherDisplay:10.37,2013-01-29 03:12:00,
2013-01-28 22:13:00,48.5,45.4,30.26,West,269,0.0,0.0,89,0.00,,,0.00,WeatherDisplay:10.37,2013-01-29 03:13:00,
2013-01-28 22:14:00,48.4,45.3,30.26,West,268,0.0,0.0,89,0.00,,,0.00,WeatherDisplay:10.37,2013-01-29 03:14:00,
2013-01-28 22:17:00,48.2,45.4,30.26,West,269,1.1,0.0,90,0.00,,,0.00,WeatherDisplay:10.37,2013-01-29 03:17:00,
2013-01-28 22:18:00,48.1,45.3,30.25,West,269,0.0,0.0,90,0.00,,,0.00,WeatherDisplay:10.37,2013-01-29 03:18:00,
2013-01-28 22:19:00,48.1,45.3,30.26,West,268,0.0,0.0,90,0.00,,,0.00,WeatherDisplay:10.37,2013-01-29 03:19:00,
2013-01-28 22:23:00,47.9,45.4,30.25,West,268,0.0,0.0,91,0.00,,,0.00,WeatherDisplay:10.37,2013-01-29 03:23:00,
2013-01-28 22:24:00,47.9,45.4,30.26,West,268,0.0,0.0,91,0.00,,,0.00,WeatherDisplay:10.37,2013-01-29 03:24:00,
2013-01-28 22:28:00,47.8,45.3,30.26,West,269,0.0,0.0,91,0.00,,,0.00,WeatherDisplay:10.37,2013-01-29 03:28:00,
2013-01-28 22:29:00,47.7,45.2,30.26,West,269,0.0,0.0,91,0.00,,,0.00,WeatherDisplay:10.37,2013-01-29 03:29:00,
2013-01-28 22:30:00,47.7,45.2,30.26,West,269,0.0,0.0,91,0.00,,,0.00,WeatherDisplay:10.37,2013-01-29 03:30:00,
2013-01-28 22:33:00,47.6,45.1,30.26,West,269,1.1,1.1,91,0.00,,,0.00,WeatherDisplay:10.37,2013-01-29 03:33:00,
2013-01-28 22:34:00,47.6,45.1,30.26,West,269,1.1,0.0,91,0.00,,,0.00,WeatherDisplay:10.37,2013-01-29 03:34:00,
2013-01-28 22:35:00,47.5,45.3,30.26,West,269,1.1,1.1,92,0.00,,,0.00,WeatherDisplay:10.37,2013-01-29 03:35:00,
2013-01-28 22:38:00,47.5,45.3,30.25,SSW,208,2.3,2.3,92,0.00,,,0.00,WeatherDisplay:10.37,2013-01-29 03:38:00,
2013-01-28 22:39:00,47.5,45.3,30.25,SSW,208,1.1,1.1,92,0.00,,,0.00,WeatherDisplay:10.37,2013-01-29 03:39:00,
2013-01-28 22:40:00,47.5,45.3,30.25,SSW,209,0.0,0.0,92,0.00,,,0.00,WeatherDisplay:10.37,2013-01-29 03:40:00,
2013-01-28 22:44:00,47.5,45.3,30.25,WSW,244,1.1,0.0,92,0.00,,,0.00,WeatherDisplay:10.37,2013-01-29 03:44:00,
2013-01-28 22:45:00,47.4,45.2,30.25,WSW,245,1.1,0.0,92,0.00,,,0.00,WeatherDisplay:10.37,2013-01-29 03:45:00,
2013-01-28 22:49:00,47.3,45.4,30.25,WSW,244,0.0,0.0,93,0.00,,,0.00,WeatherDisplay:10.37,2013-01-29 03:49:00,
2013-01-28 22:50:00,47.3,45.4,30.25,WSW,244,0.0,0.0,93,0.00,,,0.00,WeatherDisplay:10.37,2013-01-29 03:50:00,
2013-01-28 22:54:00,47.3,45.4,30.25,WSW,244,0.0,0.0,93,0.00,,,0.00,WeatherDisplay:10.37,2013-01-29 03:54:00,
2013-01-28 22:55:00,47.3,45.4,30.25,WSW,244,0.0,0.0,93,0.00,,,0.00,WeatherDisplay:10.37,2013-01-29 03:55:00,
2013-01-28 22:56:00,47.3,45.4,30.25,WSW,245,0.0,0.0,93,0.00,,,0.00,WeatherDisplay:10.37,2013-01-29 03:56:00,
2013-01-28 22:59:00,47.3,45.4,30.25,WSW,245,0.0,0.0,93,0.00,,,0.00,WeatherDisplay:10.37,2013-01-29 03:59:00,
2013-01-28 23:00:00,47.3,45.4,30.25,WSW,244,0.0,0.0,93,0.00,,,0.00,WeatherDisplay:10.37,2013-01-29 04:00:00,
2013-01-28 23:01:00,47.3,45.4,30.25,WSW,245,0.0,0.0,93,0.00,,,0.00,WeatherDisplay:10.37,2013-01-29 04:01:00,
2013-01-28 23:04:00,47.5,45.9,30.25,WSW,244,0.0,0.0,94,0.00,,,0.00,WeatherDisplay:10.37,2013-01-29 04:04:00,
2013-01-28 23:05:00,47.4,45.8,30.25,WSW,244,0.0,0.0,94,0.00,,,0.00,WeatherDisplay:10.37,2013-01-29 04:05:00,
2013-01-28 23:06:00,47.5,45.9,30.25,WSW,244,0.0,0.0,94,0.00,,,0.00,WeatherDisplay:10.37,2013-01-29 04:06:00,
2013-01-28 23:09:00,47.5,45.9,30.25,WSW,244,0.0,0.0,94,0.00,,,0.00,WeatherDisplay:10.37,2013-01-29 04:09:00,
2013-01-28 23:10:00,47.5,45.9,30.25,WSW,244,0.0,0.0,94,0.00,,,0.00,WeatherDisplay:10.37,2013-01-29 04:10:00,
2013-01-28 23:11:00,47.5,45.9,30.25,WSW,245,1.1,0.0,94,0.00,,,0.00,WeatherDisplay:10.37,2013-01-29 04:11:00,
2013-01-28 23:15:00,47.5,45.9,30.25,WSW,244,0.0,0.0,94,0.00,,,0.00,WeatherDisplay:10.37,2013-01-29 04:15:00,
2013-01-28 23:16:00,47.5,45.9,30.25,WSW,244,0.0,0.0,94,0.00,,,0.00,WeatherDisplay:10.37,2013-01-29 04:16:00,
2013-01-28 23:17:00,47.5,45.9,30.25,WSW,245,0.0,0.0,94,0.00,,,0.00,WeatherDisplay:10.37,2013-01-29 04:17:00,
2013-01-28 23:20:00,47.5,45.9,30.25,WSW,244,0.0,0.0,94,0.00,,,0.00,WeatherDisplay:10.37,2013-01-29 04:20:00,
2013-01-28 23:21:00,47.4,45.8,30.25,WSW,244,0.0,0.0,94,0.00,,,0.00,WeatherDisplay:10.37,2013-01-29 04:21:00,
2013-01-28 23:23:00,47.4,45.8,30.25,WSW,244,0.0,0.0,94,0.00,,,0.00,WeatherDisplay:10.37,2013-01-29 04:23:00,
2013-01-28 23:25:00,47.3,45.7,30.25,WSW,244,0.0,0.0,94,0.00,,,0.00,WeatherDisplay:10.37,2013-01-29 04:25:00,
2013-01-28 23:26:00,47.2,45.6,30.25,WSW,245,0.0,0.0,94,0.00,,,0.00,WeatherDisplay:10.37,2013-01-29 04:26:00,
2013-01-28 23:29:00,47.2,45.6,30.25,WSW,244,0.0,0.0,94,0.00,,,0.00,WeatherDisplay:10.37,2013-01-29 04:29:00,
2013-01-28 23:30:00,47.1,45.5,30.25,WSW,244,0.0,0.0,94,0.00,,,0.00,WeatherDisplay:10.37,2013-01-29 04:30:00,
2013-01-28 23:31:00,47.1,45.5,30.25,WSW,244,0.0,0.0,94,0.00,,,0.00,WeatherDisplay:10.37,2013-01-29 04:31:00,
2013-01-28 23:35:00,47.0,45.4,30.25,WSW,244,0.0,0.0,94,0.00,,,0.00,WeatherDisplay:10.37,2013-01-29 04:35:00,
2013-01-28 23:36:00,47.0,45.4,30.25,WSW,243,0.0,0.0,94,0.00,,,0.00,WeatherDisplay:10.37,2013-01-29 04:36:00,
2013-01-28 23:40:00,47.0,45.4,30.25,WSW,244,0.0,0.0,94,0.00,,,0.00,WeatherDisplay:10.37,2013-01-29 04:40:00,
2013-01-28 23:41:00,46.9,45.3,30.25,WSW,243,0.0,0.0,94,0.00,,,0.00,WeatherDisplay:10.37,2013-01-29 04:41:00,
2013-01-28 23:42:00,46.9,45.3,30.25,WSW,244,0.0,0.0,94,0.00,,,0.00,WeatherDisplay:10.37,2013-01-29 04:42:00,
2013-01-28 23:45:00,46.8,45.2,30.25,WSW,244,0.0,0.0,94,0.00,,,0.00,WeatherDisplay:10.37,2013-01-29 04:45:00,
2013-01-28 23:46:00,46.8,45.2,30.25,WSW,244,0.0,0.0,94,0.00,,,0.00,WeatherDisplay:10.37,2013-01-29 04:46:00,
2013-01-28 23:47:00,46.8,45.2,30.25,WSW,245,1.1,1.1,94,0.00,,,0.00,WeatherDisplay:10.37,2013-01-29 04:47:00,
2013-01-28 23:50:00,46.9,45.5,30.25,West,281,0.0,0.0,95,0.00,,,0.00,WeatherDisplay:10.37,2013-01-29 04:50:00,
2013-01-28 23:51:00,46.9,45.5,30.25,West,281,0.0,0.0,95,0.00,,,0.00,WeatherDisplay:10.37,2013-01-29 04:51:00,
2013-01-28 23:52:00,47.0,45.6,30.25,West,279,1.1,1.1,95,0.00,,,0.00,WeatherDisplay:10.37,2013-01-29 04:52:00,
2013-01-28 23:55:00,46.9,45.5,30.24,West,279,0.0,0.0,95,0.00,,,0.00,WeatherDisplay:10.37,2013-01-29 04:55:00,
2013-01-28 23:57:00,46.8,45.4,30.24,West,279,0.0,0.0,95,0.00,,,0.00,WeatherDisplay:10.37,2013-01-29 04:57:00,
2013-01-28 23:59:00,46.8,45.4,30.25,West,279,0.0,0.0,95,0.00,,,0.00,WeatherDisplay:10.37,2013-01-29 04:59:00,